GFSNGP_850_temp_000.txt.gz
Temp
14 14 14 13 13 14 13 13 12 13 14 15 15 14 12 11 11 10 9 8 7 6 5 5 4 4 3 2 3 3 1 -0 -1 -2 -2 -2 -2 -3 -3 -4 -4 -4 -4 -4
11 12 13 12 13 13 13 13 13 13 13 13 12 11 11 10 10 9 7 6 5 4 4 4 4 3 2 2 1 1 -0 -1 -2 -2 -2 -2 -3 -3 -3 -4 -4 -4 -5 -5
10 9 10 9 12 13 14 13 13 12 13 12 12 11 10 9 8 6 4 4 4 3 4 4 3 2 2 2 0 -0 -1 -2 -2 -2 -2 -3 -3 -3 -4 -4 -5 -5 -5 -6
8 8 10 12 14 13 13 13 14 13 12 11 11 10 10 6 5 3 2 3 3 4 4 3 3 3 2 1 0 -1 -1 -2 -2 -3 -3 -3 -4 -4 -4 -5 -5 -6 -6 -7
7 9 12 12 13 12 12 12 12 11 10 9 9 9 9 3 3 2 2 3 3 3 3 3 3 2 1 1 0 -1 -1 -2 -3 -3 -3 -4 -4 -4 -5 -5 -6 -6 -7 -8
7 7 9 12 12 10 11 11 10 8 6 6 8 7 5 3 2 2 3 3 3 3 3 3 2 1 1 0 -0 -1 -2 -3 -3 -3 -4 -4 -4 -5 -5 -6 -6 -7 -8 -9
7 7 10 12 10 9 8 9 7 5 5 4 5 3 2 2 2 3 3 3 2 2 2 2 2 1 0 0 -1 -1 -2 -3 -3 -4 -4 -4 -5 -5 -5 -6 -7 -8 -9 -10
6 6 7 10 10 8 9 6 5 4 4 4 3 2 3 3 3 3 3 3 2 2 2 1 1 0 -0 -0 -1 -2 -2 -3 -3 -4 -4 -5 -5 -5 -6 -6 -8 -9 -9 -9
9 10 12 11 9 8 6 5 5 4 4 3 3 3 3 3 3 3 3 2 2 1 0 0 0 -0 -1 -1 -2 -3 -3 -3 -4 -4 -5 -5 -5 -6 -6 -7 -9 -9 -9 -10
9 10 11 9 8 6 5 4 4 3 3 3 3 3 3 3 3 2 2 1 0 -0 -0 -1 -0 -1 -2 -3 -3 -4 -3 -3 -4 -4 -5 -5 -6 -6 -7 -8 -10 -10 -10 -10
8 8 8 8 6 5 4 4 4 3 3 3 3 3 3 2 2 1 1 0 -1 -1 -1 -1 -1 -2 -3 -4 -4 -4 -4 -4 -5 -6 -6 -6 -7 -7 -9 -10 -11 -11 -12 -12
6 7 7 6 5 4 3 3 3 3 3 3 2 2 2 1 1 0 -0 -1 -1 -1 -2 -2 -3 -4 -5 -5 -5 -4 -4 -5 -6 -6 -7 -7 -7 -8 -9 -10 -11 -12 -12 -13
7 6 5 4 4 3 3 3 2 2 2 2 2 2 1 0 -0 -1 -1 -1 -1 -2 -3 -3 -4 -5 -6 -5 -4 -5 -5 -5 -7 -7 -8 -8 -8 -9 -9 -10 -11 -12 -13 -13
5 4 4 4 4 2 2 2 2 2 2 2 1 0 0 -0 -0 -1 -1 -2 -3 -4 -4 -5 -6 -6 -6 -5 -5 -5 -5 -7 -7 -8 -8 -9 -9 -10 -10 -11 -11 -11 -13 -14
4 3 3 2 2 2 2 2 2 2 2 1 1 -0 -1 -1 -1 -2 -3 -4 -4 -5 -5 -5 -6 -6 -6 -6 -6 -7 -8 -8 -7 -8 -8 -8 -10 -10 -11 -11 -11 -12 -12 -13
2 2 2 2 2 2 2 2 1 1 0 -0 -1 -1 -2 -2 -3 -3 -2 -3 -4 -5 -5 -5 -6 -6 -6 -6 -8 -8 -9 -9 -8 -9 -9 -10 -10 -10 -11 -11 -11 -12 -13 -14
2 2 2 2 2 1 0 -0 -1 -1 -1 -1 -1 -1 -2 -2 -2 -3 -3 -4 -4 -4 -5 -6 -5 -6 -6 -7 -8 -8 -9 -9 -9 -9 -10 -10 -11 -11 -11 -12 -12 -12 -13 -15
2 1 1 0 0 -0 -1 -1 -1 -1 -1 -2 -2 -2 -2 -3 -3 -4 -4 -4 -4 -5 -5 -5 -5 -6 -7 -9 -9 -9 -9 -9 -9 -10 -10 -10 -11 -11 -12 -12 -12 -13 -13 -14
1 1 1 1 0 -0 -1 -1 -2 -2 -2 -2 -2 -2 -3 -3 -4 -4 -5 -5 -4 -5 -5 -5 -6 -6 -8 -9 -10 -10 -10 -10 -9 -9 -10 -10 -11 -11 -11 -12 -12 -13 -13 -14
1 1 0 -0 -1 -1 -1 -2 -2 -2 -2 -2 -3 -3 -4 -4 -5 -4 -4 -4 -5 -6 -5 -6 -7 -8 -9 -9 -10 -10 -10 -10 -10 -10 -10 -10 -11 -11 -11 -12 -12 -13 -13 -14
0 -0 -1 -1 -1 -1 -2 -2 -2 -2 -2 -3 -4 -4 -5 -6 -6 -4 -4 -5 -5 -5 -5 -6 -7 -8 -9 -9 -10 -10 -10 -10 -10 -10 -10 -11 -10 -11 -11 -12 -12 -13 -13 -14
-0 -1 -1 -1 -1 -2 -2 -2 -2 -3 -3 -3 -4 -4 -5 -5 -5 -5 -5 -5 -5 -5 -5 -6 -7 -7 -8 -9 -9 -9 -10 -10 -10 -10 -10 -11 -10 -10 -10 -11 -12 -12 -13 -14
-1 -1 -2 -2 -2 -2 -2 -2 -2 -2 -3 -4 -4 -5 -5 -5 -5 -5 -5 -5 -5 -5 -5 -6 -6 -7 -7 -8 -9 -10 -10 -10 -10 -10 -10 -10 -10 -10 -10 -10 -11 -11 -12 -13
-1 -2 -2 -2 -2 -2 -2 -2 -2 -2 -3 -4 -6 -6 -6 -6 -5 -5 -5 -5 -5 -5 -5 -6 -6 -7 -8 -9 -9 -10 -10 -10 -10 -10 -10 -10 -10 -10 -10 -10 -10 -11 -11 -12
-2 -2 -2 -2 -2 -3 -3 -3 -3 -3 -5 -6 -6 -6 -6 -6 -5 -6 -6 -5 -5 -5 -5 -6 -6 -7 -8 -9 -10 -10 -10 -9 -9 -9 -10 -10 -10 -10 -10 -10 -11 -11 -11 -11
-2 -2 -2 -2 -2 -3 -3 -4 -4 -5 -6 -6 -6 -6 -6 -6 -6 -6 -6 -6 -6 -5 -6 -6 -6 -7 -8 -9 -10 -10 -10 -9 -9 -9 -9 -9 -9 -10 -10 -10 -11 -11 -11 -11
-2 -2 -2 -2 -3 -3 -4 -5 -6 -6 -6 -6 -6 -7 -6 -6 -6 -6 -6 -6 -6 -6 -6 -6 -7 -8 -9 -9 -10 -10 -10 -9 -9 -9 -9 -9 -9 -9 -9 -10 -10 -11 -11 -11

GFSNGP_850_temp_003.txt.gz
Temp
16 17 17 16 16 16 16 16 14 15 16 17 17 16 15 14 13 12 11 10 8 8 7 5 6 6 5 4 3 3 2 2 1 0 0 -0 -1 -1 -2 -2 -2 -2 -3 -3
13 16 16 15 16 17 16 16 16 16 16 16 15 15 14 12 11 10 9 7 6 6 6 5 6 5 5 4 4 3 2 2 1 0 -0 -1 -1 -2 -2 -2 -2 -3 -3 -3
11 13 12 10 14 16 16 16 15 14 15 16 15 12 10 9 10 8 6 5 6 5 6 5 5 5 5 5 4 2 2 2 1 -0 -1 -1 -2 -2 -2 -2 -3 -3 -4 -4
9 8 11 15 16 16 15 15 16 16 15 14 11 11 10 7 6 6 5 5 5 6 5 5 5 5 5 4 4 3 2 2 1 -1 -2 -2 -2 -2 -2 -3 -3 -4 -4 -5
9 11 13 14 14 14 13 13 15 14 12 11 10 10 10 7 6 5 4 5 6 5 5 5 5 4 4 4 4 3 2 1 -1 -1 -2 -2 -2 -2 -3 -3 -3 -4 -5 -6
8 8 10 13 15 13 13 12 12 11 10 7 8 8 10 6 5 5 5 6 5 5 4 4 4 4 3 3 3 2 1 1 -1 -1 -2 -3 -2 -3 -3 -3 -4 -5 -6 -7
9 8 11 14 12 12 10 10 10 8 6 7 7 7 6 5 5 6 6 6 5 5 4 4 3 2 2 3 2 1 0 -0 -1 -2 -2 -2 -2 -3 -3 -4 -5 -7 -7 -8
8 7 8 12 12 9 11 10 8 6 6 6 5 6 6 5 5 5 5 5 5 4 3 2 2 2 2 2 2 -0 -1 -1 -2 -2 -2 -2 -3 -3 -4 -4 -6 -7 -8 -8
11 12 14 11 8 9 9 8 6 5 5 4 6 6 5 5 5 5 4 4 4 3 2 2 1 1 1 0 -1 -2 -3 -3 -3 -2 -2 -3 -3 -4 -4 -5 -7 -8 -8 -9
11 12 12 10 10 9 7 6 5 4 5 6 5 5 5 5 5 4 4 3 3 2 1 1 1 0 -0 -2 -3 -3 -3 -3 -3 -3 -3 -4 -4 -4 -5 -7 -8 -9 -9 -10
11 12 11 10 8 7 7 5 4 5 5 5 5 5 5 4 4 3 3 2 2 1 1 1 0 -1 -1 -3 -3 -4 -4 -4 -4 -4 -4 -4 -5 -5 -6 -8 -9 -10 -11 -12
10 10 9 8 6 7 6 6 5 5 5 5 4 4 4 4 3 2 2 1 1 1 1 0 -1 -2 -3 -4 -5 -5 -5 -5 -5 -6 -5 -6 -6 -6 -7 -8 -9 -10 -11 -12
10 7 6 5 5 5 6 5 5 4 4 4 4 4 3 3 2 1 1 1 1 -0 -1 -2 -3 -4 -4 -5 -5 -5 -5 -6 -6 -6 -6 -7 -7 -8 -8 -9 -9 -10 -11 -11
6 6 5 4 6 5 4 4 4 4 4 4 3 3 2 2 1 1 0 -0 -1 -2 -3 -3 -3 -4 -5 -5 -6 -6 -6 -7 -7 -7 -7 -8 -8 -9 -9 -9 -10 -10 -11 -11
5 4 5 6 5 5 4 4 4 4 3 2 2 1 0 -0 -1 -1 -1 -2 -3 -4 -4 -4 -4 -4 -5 -6 -5 -7 -7 -8 -8 -8 -8 -9 -9 -9 -10 -10 -10 -10 -11 -11
6 6 5 5 4 4 4 3 3 3 2 1 0 -1 -1 -2 -2 -3 -3 -3 -4 -5 -4 -5 -5 -5 -6 -6 -7 -6 -6 -8 -9 -8 -8 -9 -9 -9 -10 -10 -10 -10 -11 -11
5 5 4 3 4 3 3 2 2 1 -1 -1 -2 -1 -1 -2 -2 -3 -3 -4 -5 -5 -4 -5 -5 -6 -6 -6 -7 -7 -7 -8 -8 -9 -9 -9 -9 -10 -10 -10 -10 -11 -11 -12
4 3 3 3 2 2 1 1 -1 -1 -2 -2 -2 -2 -2 -2 -3 -3 -3 -5 -5 -5 -4 -5 -5 -5 -5 -7 -7 -8 -9 -8 -8 -9 -9 -9 -10 -10 -10 -10 -11 -11 -11 -12
2 2 2 2 1 0 -1 -1 -1 -1 -1 -2 -2 -2 -2 -3 -3 -4 -5 -6 -5 -5 -5 -5 -5 -6 -6 -8 -9 -9 -9 -9 -9 -9 -9 -10 -10 -10 -10 -10 -11 -11 -12 -12
2 1 1 1 0 -0 -1 -1 -1 -2 -2 -2 -2 -3 -3 -3 -4 -4 -5 -5 -5 -5 -5 -6 -6 -7 -7 -8 -9 -9 -9 -9 -9 -9 -9 -10 -10 -10 -10 -10 -11 -11 -11 -12
1 1 1 0 -0 -1 -1 -1 -2 -2 -2 -2 -2 -3 -4 -3 -4 -5 -5 -5 -5 -5 -5 -5 -6 -7 -7 -8 -9 -9 -9 -9 -9 -9 -9 -9 -10 -10 -10 -10 -10 -11 -11 -12
-0 -0 -0 -1 -1 -1 -1 -2 -2 -2 -2 -2 -2 -3 -4 -5 -6 -6 -5 -5 -5 -5 -5 -5 -5 -6 -7 -7 -8 -9 -9 -9 -9 -9 -9 -9 -10 -10 -10 -10 -10 -11 -11 -12
-0 -1 -1 -1 -1 -2 -2 -2 -2 -2 -2 -2 -3 -5 -6 -6 -6 -6 -5 -5 -5 -5 -5 -5 -5 -6 -6 -6 -7 -9 -9 -10 -10 -9 -9 -10 -10 -10 -10 -10 -10 -11 -11 -12
-1 -1 -2 -2 -2 -2 -2 -2 -3 -3 -3 -4 -5 -5 -6 -6 -6 -6 -5 -6 -5 -5 -5 -6 -5 -6 -6 -7 -8 -9 -9 -9 -9 -9 -9 -10 -10 -10 -10 -10 -10 -11 -11 -11
-1 -2 -2 -2 -2 -2 -2 -2 -3 -3 -4 -5 -5 -5 -6 -6 -6 -6 -6 -6 -6 -6 -5 -5 -6 -6 -6 -7 -8 -9 -9 -10 -10 -10 -10 -10 -10 -10 -10 -10 -10 -10 -11 -11
-2 -2 -2 -2 -2 -2 -3 -3 -3 -4 -5 -6 -6 -6 -6 -7 -7 -6 -6 -6 -6 -6 -6 -6 -6 -6 -6 -7 -8 -9 -9 -10 -10 -9 -9 -9 -9 -9 -9 -9 -10 -10 -11 -11
-2 -3 -3 -3 -3 -3 -3 -3 -4 -5 -6 -6 -6 -6 -6 -6 -6 -6 -6 -6 -6 -6 -6 -6 -6 -6 -6 -7 -8 -9 -10 -10 -10 -9 -9 -9 -8 -8 -9 -9 -9 -9 -10 -10

GFSNGP_850_temp_006.txt.gz
Temp
16 17 17 17 17 17 17 17 14 15 16 17 16 16 12 12 11 11 10 9 8 7 7 7 6 6 6 6 5 5 3 2 3 3 1 1 0 -1 -1 -2 -2 -2 -2 -3
13 17 16 15 16 16 17 17 17 16 16 17 14 13 12 10 10 9 9 7 7 7 6 6 6 6 6 5 5 5 3 3 3 1 1 0 -1 -1 -2 -2 -2 -2 -3 -3
12 12 11 11 13 17 17 17 16 14 15 15 13 12 12 10 9 8 7 7 6 6 6 6 6 5 5 5 5 5 4 4 2 0 -0 -1 -1 -2 -2 -2 -2 -3 -3 -4
9 8 11 16 17 17 16 16 16 16 15 13 12 11 11 8 7 7 6 6 6 6 6 6 5 5 5 4 4 4 4 3 1 0 -0 -1 -1 -2 -3 -3 -3 -3 -3 -4
9 11 13 14 15 14 13 13 15 14 12 11 10 10 9 7 6 6 6 6 6 6 6 5 5 4 3 3 3 3 3 2 0 -1 -1 -1 -2 -2 -3 -3 -3 -3 -4 -5
7 8 10 14 15 14 13 11 12 11 10 9 9 8 9 7 6 6 6 6 6 6 5 5 4 3 2 2 2 2 1 0 -2 -2 -2 -2 -3 -3 -3 -3 -3 -4 -5 -5
8 8 10 14 14 13 10 10 10 9 8 8 8 6 6 6 6 6 6 6 5 5 4 4 3 2 2 2 1 0 -1 -2 -2 -3 -2 -3 -3 -3 -3 -3 -4 -5 -5 -6
8 8 9 13 13 10 11 10 9 8 7 7 6 5 7 7 6 6 6 5 5 4 4 3 2 2 1 1 0 -1 -2 -2 -3 -3 -3 -3 -3 -3 -3 -4 -5 -5 -6 -8
11 10 13 13 11 10 9 9 7 6 6 6 6 6 6 6 6 6 5 5 4 3 3 2 2 2 1 0 -1 -2 -2 -3 -3 -3 -3 -3 -3 -3 -4 -5 -5 -6 -8 -9
12 13 13 13 12 9 8 8 7 6 6 5 6 6 6 6 5 5 4 4 3 2 2 2 1 1 0 -1 -2 -3 -3 -4 -4 -4 -4 -4 -4 -4 -5 -5 -6 -7 -9 -10
12 13 13 12 8 8 7 7 6 6 6 6 6 5 5 5 4 4 3 3 2 2 2 1 0 -0 -1 -2 -3 -4 -4 -5 -4 -4 -4 -5 -5 -5 -6 -7 -7 -8 -9 -10
10 12 10 9 7 7 6 6 6 6 6 5 5 5 5 4 3 3 2 2 1 1 0 -0 -1 -1 -2 -3 -4 -4 -5 -5 -5 -6 -6 -6 -6 -6 -7 -8 -8 -9 -9 -10
12 9 8 6 6 6 6 6 6 5 5 5 4 4 3 3 2 1 1 0 -0 -1 -1 -2 -3 -3 -3 -4 -5 -5 -5 -5 -7 -7 -7 -7 -7 -7 -8 -9 -9 -9 -9 -10
8 7 7 6 6 6 6 5 5 5 5 4 3 3 2 1 0 -0 -1 -1 -2 -2 -2 -3 -4 -4 -4 -4 -5 -5 -5 -6 -7 -7 -7 -7 -8 -9 -9 -9 -9 -9 -10 -10
7 6 6 7 6 6 5 5 5 4 4 3 2 1 0 -1 -1 -2 -2 -2 -3 -3 -3 -4 -5 -4 -5 -5 -5 -5 -6 -6 -7 -7 -8 -8 -9 -9 -9 -9 -9 -9 -10 -10
7 7 7 6 6 5 5 4 4 3 2 1 0 -1 -1 -2 -2 -2 -2 -3 -3 -3 -4 -5 -5 -5 -5 -6 -6 -6 -6 -6 -7 -8 -8 -9 -9 -9 -9 -10 -10 -10 -10 -10
6 6 6 5 5 4 3 3 2 1 1 -1 -1 -1 -1 -1 -2 -2 -2 -3 -3 -4 -5 -5 -5 -5 -5 -6 -6 -7 -7 -7 -7 -8 -9 -9 -9 -9 -10 -10 -10 -10 -10 -11
6 5 4 4 3 3 2 1 1 -0 -1 -1 -1 -1 -1 -2 -2 -2 -3 -3 -3 -4 -6 -5 -5 -5 -5 -6 -7 -7 -7 -8 -8 -9 -9 -9 -9 -10 -10 -10 -10 -10 -10 -11
4 3 3 2 2 1 1 0 -0 -1 -1 -1 -1 -2 -2 -2 -2 -3 -3 -4 -5 -5 -5 -5 -5 -5 -6 -6 -7 -8 -8 -9 -9 -9 -8 -9 -9 -10 -10 -10 -10 -10 -11 -11
3 2 1 1 1 1 1 0 -1 -1 -1 -2 -2 -2 -2 -2 -3 -3 -5 -6 -5 -5 -5 -5 -5 -5 -6 -6 -6 -7 -9 -9 -9 -9 -8 -8 -9 -10 -10 -10 -10 -10 -10 -11
1 1 1 1 1 0 -0 -1 -1 -1 -2 -2 -2 -2 -3 -2 -4 -6 -6 -6 -5 -5 -5 -5 -5 -5 -6 -6 -7 -7 -8 -9 -9 -9 -9 -8 -9 -9 -10 -10 -10 -10 -10 -11
1 1 1 0 0 -0 -1 -1 -1 -2 -2 -2 -2 -3 -3 -5 -6 -6 -6 -6 -5 -5 -5 -5 -6 -5 -6 -7 -7 -7 -8 -9 -9 -9 -9 -9 -9 -9 -10 -10 -10 -10 -11 -11
1 0 0 -0 -1 -1 -1 -2 -2 -2 -2 -2 -3 -3 -5 -5 -6 -6 -6 -6 -6 -5 -6 -5 -6 -6 -6 -6 -7 -7 -7 -8 -9 -9 -9 -9 -9 -10 -10 -10 -10 -11 -11 -11
-0 -1 -1 -1 -2 -2 -2 -1 -2 -2 -3 -3 -3 -4 -5 -5 -5 -6 -6 -6 -6 -6 -6 -6 -6 -6 -6 -6 -6 -7 -7 -8 -9 -9 -9 -9 -9 -9 -10 -10 -10 -10 -11 -11
-1 -1 -1 -1 -2 -2 -2 -2 -2 -2 -2 -3 -4 -5 -5 -5 -6 -6 -7 -7 -7 -6 -6 -6 -6 -6 -6 -6 -6 -6 -7 -8 -8 -9 -9 -10 -10 -10 -10 -10 -10 -10 -10 -11
-1 -2 -2 -2 -2 -2 -2 -2 -2 -2 -3 -3 -4 -5 -6 -6 -6 -6 -7 -7 -7 -6 -6 -6 -6 -6 -6 -6 -6 -6 -7 -7 -8 -9 -10 -10 -9 -10 -10 -10 -10 -10 -10 -11
-2 -2 -2 -2 -2 -2 -2 -2 -3 -3 -3 -4 -5 -6 -6 -7 -7 -7 -7 -7 -7 -7 -7 -6 -6 -6 -6 -6 -6 -6 -7 -7 -8 -9 -10 -9 -9 -9 -9 -9 -9 -9 -9 -9

GFSNGP_850_temp_009.txt.gz
Temp
13 14 15 15 15 15 14 13 9 11 13 12 10 11 10 10 10 9 8 7 7 7 6 6 6 6 5 5 5 4 4 4 4 3 2 -0 -1 -1 -2 -2 -2 -2 -2 -3
12 12 12 12 12 12 13 14 14 14 13 11 12 11 10 9 8 7 7 6 6 6 6 6 6 5 5 4 4 4 3 3 3 2 1 0 -1 -2 -2 -2 -2 -3 -3 -3
8 9 7 7 11 14 14 14 14 11 12 11 9 9 8 7 7 6 6 6 6 6 6 6 5 5 4 3 3 3 2 2 1 1 0 -0 -1 -2 -2 -2 -3 -3 -3 -3
4 4 7 12 14 14 13 12 12 11 10 9 9 8 7 7 6 6 6 6 6 6 5 5 4 4 3 3 3 2 2 1 1 -0 -0 -1 -2 -3 -3 -3 -3 -3 -3 -4
4 5 8 11 13 12 11 10 10 9 9 9 9 9 6 6 6 6 6 6 6 5 5 4 4 3 3 2 2 1 1 0 -0 -1 -2 -3 -3 -3 -3 -3 -3 -3 -4 -4
4 3 4 9 12 13 12 6 10 9 8 8 8 3 5 7 6 6 6 6 5 5 4 4 3 3 2 2 1 1 0 -1 -1 -2 -2 -3 -3 -3 -3 -3 -4 -4 -4 -5
5 2 5 9 13 12 7 7 9 9 8 7 6 6 6 6 6 6 6 5 5 4 3 3 3 2 2 2 1 0 -1 -1 -2 -2 -3 -3 -3 -3 -3 -4 -4 -4 -5 -6
5 4 4 12 12 8 8 9 9 8 7 6 6 6 6 6 6 6 5 5 4 3 3 2 2 2 1 1 -0 -1 -1 -2 -3 -3 -3 -4 -4 -3 -4 -4 -5 -5 -5 -6
6 5 10 13 13 12 11 9 8 7 7 6 6 6 6 6 5 5 4 4 3 2 2 2 1 1 0 -0 -1 -1 -2 -3 -4 -4 -4 -4 -4 -4 -5 -5 -5 -6 -7 -8
8 10 12 12 11 11 9 8 7 6 6 6 6 6 5 5 4 4 3 3 2 1 1 1 0 -0 -1 -1 -2 -2 -3 -4 -4 -5 -5 -5 -5 -5 -6 -6 -6 -7 -8 -9
7 11 11 9 9 8 7 7 7 6 6 5 5 5 4 4 3 2 2 2 1 1 0 -0 -1 -1 -1 -2 -3 -3 -4 -4 -5 -5 -5 -5 -6 -6 -6 -7 -7 -8 -9 -9
5 10 10 7 7 7 7 6 6 6 5 5 5 4 3 3 2 2 1 1 0 -0 -1 -1 -2 -2 -3 -4 -4 -4 -4 -4 -5 -5 -6 -7 -7 -7 -7 -7 -8 -9 -9 -10
10 9 9 8 7 6 6 6 6 5 5 4 4 3 3 2 2 1 0 -0 -1 -2 -2 -2 -3 -4 -4 -5 -4 -5 -5 -5 -5 -6 -7 -7 -7 -8 -8 -8 -9 -9 -10 -10
10 9 7 7 6 6 6 5 5 4 4 4 3 3 2 1 0 -0 -1 -1 -2 -2 -2 -3 -3 -5 -5 -5 -5 -5 -5 -6 -6 -7 -7 -7 -8 -9 -9 -9 -9 -9 -10 -10
8 8 7 7 6 6 5 5 4 4 3 3 2 2 1 -0 -1 -1 -2 -2 -2 -3 -2 -3 -4 -5 -6 -5 -6 -6 -6 -6 -7 -7 -7 -8 -9 -9 -9 -9 -10 -10 -10 -10
7 7 6 6 6 5 5 4 4 3 3 2 1 0 -1 -1 -2 -2 -2 -2 -3 -2 -3 -4 -6 -6 -5 -5 -6 -6 -7 -7 -7 -7 -8 -8 -9 -9 -10 -10 -10 -10 -10 -10
7 6 6 5 5 4 4 3 3 2 1 1 -0 -1 -1 -2 -2 -2 -2 -2 -2 -3 -4 -5 -6 -6 -6 -6 -6 -7 -7 -7 -7 -7 -8 -9 -9 -9 -10 -10 -10 -10 -10 -11
6 5 5 4 4 3 3 2 1 1 0 -1 -1 -1 -2 -2 -2 -2 -2 -2 -2 -3 -5 -5 -6 -6 -5 -6 -6 -7 -7 -8 -8 -8 -9 -9 -9 -9 -10 -10 -10 -10 -10 -11
2 3 3 3 3 2 1 1 1 -0 -1 -1 -1 -2 -2 -2 -3 -3 -3 -5 -6 -6 -5 -6 -5 -5 -6 -6 -6 -6 -7 -7 -9 -9 -9 -9 -9 -9 -10 -10 -10 -10 -10 -10
3 3 2 2 1 1 1 1 -0 -1 -1 -1 -2 -2 -2 -2 -3 -4 -6 -6 -6 -6 -6 -5 -6 -5 -6 -6 -6 -6 -7 -7 -8 -9 -9 -9 -9 -9 -9 -10 -10 -10 -10 -10
2 2 1 1 1 1 1 -0 -1 -1 -1 -2 -2 -2 -2 -3 -4 -6 -6 -6 -6 -6 -5 -6 -6 -5 -6 -6 -6 -7 -7 -7 -8 -9 -9 -9 -9 -9 -9 -9 -10 -10 -10 -10
1 1 1 1 1 0 -0 -1 -1 -1 -2 -2 -2 -2 -3 -3 -4 -5 -5 -6 -6 -6 -6 -6 -6 -7 -6 -6 -7 -7 -7 -7 -8 -9 -9 -9 -9 -9 -9 -9 -10 -10 -11 -11
1 0 0 0 -0 -1 -1 -1 -2 -2 -2 -2 -2 -3 -3 -4 -5 -5 -5 -6 -7 -7 -7 -7 -7 -7 -6 -6 -7 -7 -7 -7 -7 -8 -9 -9 -10 -10 -10 -10 -10 -10 -11 -11
-0 -0 -1 -1 -1 -1 -1 -1 -2 -2 -2 -2 -3 -3 -4 -4 -4 -5 -6 -6 -7 -7 -7 -7 -7 -7 -6 -7 -6 -6 -6 -6 -7 -7 -8 -9 -9 -9 -9 -9 -10 -10 -10 -11
-0 -1 -1 -1 -1 -1 -2 -2 -2 -2 -2 -3 -3 -3 -4 -5 -6 -6 -6 -6 -7 -7 -7 -7 -7 -7 -7 -7 -6 -6 -6 -6 -6 -7 -7 -8 -9 -9 -10 -10 -10 -10 -10 -11
-1 -1 -2 -2 -2 -2 -2 -2 -2 -3 -3 -3 -3 -4 -5 -5 -6 -7 -7 -7 -7 -7 -7 -7 -7 -7 -7 -7 -7 -6 -6 -6 -6 -7 -7 -8 -8 -10 -10 -10 -10 -10 -11 -11
-2 -2 -2 -2 -2 -2 -2 -3 -3 -3 -3 -4 -5 -5 -6 -7 -7 -7 -7 -7 -7 -7 -7 -7 -7 -7 -7 -7 -7 -7 -7 -7 -7 -7 -7 -7 -8 -9 -9 -10 -10 -11 -11 -11

GFSNGP_850_temp_012.txt.gz
Temp
12 12 14 14 14 13 12 11 9 10 10 10 9 8 9 8 8 8 8 8 7 7 6 6 6 5 5 5 4 4 3 3 2 2 1 1 0 -0 -1 -2 -2 -3 -3 -3
12 10 10 12 11 11 11 13 12 12 10 10 10 9 8 8 8 7 7 7 6 6 6 5 5 5 4 4 4 3 2 2 2 1 1 -0 -1 -2 -2 -2 -3 -4 -4 -3
7 6 7 7 11 13 13 13 13 11 9 8 7 7 7 7 7 7 6 6 6 6 5 5 5 4 4 3 3 2 1 1 1 0 -0 -1 -2 -2 -3 -3 -3 -3 -3 -3
4 3 6 11 12 12 11 11 9 8 7 8 8 7 7 7 7 6 6 6 6 5 5 5 4 4 3 2 2 2 1 1 1 0 -1 -2 -3 -3 -3 -4 -4 -3 -4 -4
3 4 7 11 12 11 11 10 8 8 7 8 7 6 6 6 6 6 6 6 6 5 5 4 3 3 3 2 2 1 1 0 -0 -1 -2 -2 -3 -3 -4 -3 -3 -4 -4 -5
3 4 5 8 11 12 12 6 9 8 7 8 7 3 4 6 6 6 6 5 5 4 4 3 3 3 2 2 1 1 0 -1 -1 -2 -3 -3 -3 -3 -4 -4 -4 -5 -5 -6
-1 0 4 7 11 12 7 7 9 9 8 7 5 7 6 6 6 6 5 5 4 4 3 2 2 2 1 1 0 -0 -1 -2 -2 -3 -4 -4 -4 -4 -5 -5 -5 -6 -6 -7
1 0 5 9 10 8 8 10 9 8 8 7 7 6 6 6 5 5 4 4 3 3 2 2 1 1 0 -0 -1 -1 -2 -2 -3 -4 -4 -4 -4 -4 -5 -5 -6 -6 -7 -7
6 6 9 11 12 13 12 11 9 8 7 7 6 6 6 5 5 4 4 3 3 2 1 1 -0 -1 -1 -1 -2 -2 -3 -3 -3 -4 -5 -5 -5 -5 -6 -6 -6 -7 -7 -8
6 9 9 12 11 12 11 10 9 7 7 6 6 5 5 4 4 4 3 2 2 1 1 -0 -1 -1 -2 -2 -2 -3 -4 -4 -4 -4 -5 -5 -6 -6 -6 -7 -7 -7 -8 -8
5 8 9 10 10 11 9 8 7 6 6 6 5 5 4 4 3 3 2 1 1 0 -0 -1 -1 -2 -2 -3 -4 -4 -5 -5 -5 -5 -5 -6 -6 -7 -7 -7 -8 -8 -9 -9
7 11 10 10 9 8 8 7 7 6 5 5 5 4 4 3 3 2 1 1 0 -1 -1 -2 -2 -2 -3 -4 -5 -5 -5 -5 -5 -6 -6 -6 -7 -8 -8 -8 -8 -9 -9 -9
11 11 11 11 8 7 7 6 6 5 5 4 4 3 3 3 2 1 1 -0 -1 -1 -2 -2 -2 -3 -4 -5 -6 -5 -5 -5 -6 -6 -7 -7 -8 -8 -9 -9 -9 -9 -9 -10
11 10 7 7 7 6 6 5 5 5 4 4 3 3 2 2 1 0 -0 -1 -2 -2 -2 -2 -3 -4 -5 -6 -6 -5 -6 -6 -6 -7 -7 -7 -8 -9 -9 -9 -9 -10 -10 -10
10 9 9 8 6 6 5 5 4 4 3 3 3 2 2 1 -0 -1 -2 -2 -2 -2 -2 -2 -3 -4 -6 -6 -6 -6 -6 -7 -7 -7 -7 -8 -8 -9 -9 -10 -10 -10 -10 -10
8 7 7 6 5 5 3 3 4 3 3 3 2 1 0 -1 -1 -2 -2 -2 -2 -2 -2 -2 -3 -5 -6 -6 -6 -6 -7 -7 -7 -7 -8 -8 -8 -9 -9 -10 -10 -10 -10 -10
7 5 5 4 3 1 2 3 3 3 2 2 1 -0 -1 -1 -2 -2 -2 -3 -2 -3 -4 -5 -6 -6 -6 -6 -6 -6 -7 -7 -7 -8 -8 -9 -9 -9 -10 -10 -10 -10 -10 -10
6 4 3 0 -1 1 2 2 2 2 2 0 -1 -1 -2 -2 -2 -2 -3 -2 -2 -4 -6 -6 -6 -6 -6 -6 -6 -6 -7 -7 -8 -9 -9 -9 -9 -9 -9 -9 -10 -10 -10 -10
3 1 -0 -0 0 2 2 2 2 1 0 -1 -1 -2 -2 -2 -2 -3 -3 -3 -5 -5 -5 -6 -6 -6 -7 -6 -6 -6 -6 -7 -7 -7 -8 -9 -9 -9 -9 -9 -10 -10 -10 -11
0 0 1 1 2 2 1 1 0 -0 -1 -1 -2 -2 -2 -2 -2 -3 -4 -4 -5 -5 -6 -6 -6 -6 -6 -6 -6 -6 -6 -7 -7 -7 -8 -9 -9 -9 -9 -9 -10 -10 -10 -10
1 1 1 1 1 1 0 0 -0 -1 -1 -2 -2 -2 -2 -2 -3 -3 -4 -4 -4 -6 -6 -7 -7 -7 -7 -7 -7 -7 -7 -7 -7 -8 -8 -8 -9 -9 -9 -9 -9 -10 -10 -11
1 1 1 0 0 -0 -0 -1 -1 -1 -2 -2 -2 -2 -2 -2 -3 -3 -4 -4 -5 -6 -7 -7 -7 -7 -7 -7 -7 -7 -7 -7 -7 -7 -8 -8 -8 -9 -9 -9 -9 -10 -10 -11
1 0 -0 -0 -1 -1 -1 -1 -1 -2 -2 -2 -2 -2 -3 -3 -3 -4 -4 -4 -5 -6 -6 -7 -7 -7 -7 -7 -7 -7 -7 -7 -7 -7 -7 -7 -8 -8 -9 -9 -10 -10 -10 -11
-0 -0 -1 -1 -1 -1 -1 -1 -2 -2 -2 -2 -2 -3 -3 -3 -4 -4 -5 -6 -6 -7 -7 -7 -7 -7 -7 -7 -7 -7 -7 -7 -7 -7 -7 -7 -7 -7 -8 -9 -9 -10 -10 -10
-1 -1 -2 -2 -2 -2 -2 -2 -2 -2 -2 -3 -3 -3 -4 -4 -5 -5 -6 -7 -7 -7 -7 -7 -7 -7 -7 -7 -7 -7 -7 -7 -7 -7 -7 -7 -7 -7 -7 -8 -9 -10 -10 -10
-2 -2 -2 -2 -2 -2 -2 -2 -3 -3 -3 -3 -3 -4 -5 -5 -6 -6 -7 -7 -7 -7 -8 -8 -8 -8 -8 -8 -8 -8 -7 -7 -7 -7 -7 -7 -7 -7 -7 -8 -9 -10 -10 -10
-2 -2 -2 -2 -3 -3 -3 -3 -3 -3 -4 -4 -4 -5 -5 -5 -6 -6 -7 -7 -7 -8 -9 -9 -8 -8 -9 -8 -8 -9 -9 -8 -8 -8 -8 -7 -7 -7 -7 -8 -8 -10 -10 -11

GFSNGP_850_temp_015.txt.gz
Temp
10 10 12 13 13 11 11 10 9 10 9 10 8 7 8 8 7 7 7 7 7 7 6 6 6 5 5 4 4 4 3 3 2 1 1 0 -0 -1 -2 -3 -3 -3 -3 -3
11 9 9 11 11 10 10 11 9 10 9 9 9 9 8 7 7 7 7 7 7 6 6 6 5 5 4 4 4 3 2 2 1 1 0 -0 -1 -2 -3 -3 -3 -3 -4 -4
7 6 7 7 9 10 11 11 11 9 9 7 6 7 7 7 7 7 7 7 6 6 6 5 5 4 4 3 3 2 2 1 1 -0 -0 -1 -2 -3 -3 -3 -3 -4 -4 -4
4 3 7 11 10 11 11 11 9 8 7 7 7 8 8 8 7 7 7 6 6 6 5 5 4 3 3 3 2 2 1 0 -0 -0 -1 -2 -3 -3 -3 -4 -4 -4 -4 -4
3 4 7 11 10 9 10 9 7 7 6 8 8 7 7 7 7 7 6 6 5 5 4 4 3 3 2 2 1 1 0 -0 -1 -2 -2 -3 -3 -3 -4 -4 -4 -4 -5 -6
1 3 5 9 10 12 11 7 8 8 6 6 5 3 3 7 6 6 6 5 5 4 4 3 2 2 1 1 0 -0 -1 -1 -2 -3 -3 -4 -4 -4 -4 -5 -6 -6 -6 -6
-3 0 4 7 10 11 8 8 8 9 8 7 4 7 8 7 6 6 5 5 4 3 3 2 2 1 0 -0 -1 -1 -2 -2 -3 -3 -4 -4 -4 -4 -5 -5 -5 -6 -6 -7
1 1 6 9 9 8 9 11 11 10 10 8 8 7 6 6 5 5 5 4 3 3 2 2 1 0 -0 -1 -2 -2 -3 -3 -4 -4 -4 -5 -5 -5 -5 -6 -6 -7 -7 -8
5 6 8 9 11 12 12 13 10 10 9 8 8 6 6 5 5 4 4 3 3 2 2 1 0 -0 -1 -1 -2 -2 -3 -4 -4 -4 -5 -5 -5 -6 -6 -6 -7 -7 -8 -8
6 9 8 11 11 10 11 12 11 10 9 7 7 6 5 4 4 3 3 3 2 1 1 0 -0 -1 -2 -2 -2 -3 -4 -5 -5 -5 -5 -5 -6 -6 -7 -7 -8 -8 -8 -9
5 7 9 11 12 12 11 10 10 8 8 7 6 5 4 4 3 3 2 2 1 1 0 -1 -1 -2 -2 -3 -3 -5 -6 -5 -5 -5 -6 -6 -6 -7 -8 -8 -8 -8 -9 -9
7 11 10 11 13 12 11 10 8 7 6 5 5 5 4 3 3 2 1 1 0 -0 -1 -1 -2 -2 -2 -3 -4 -6 -6 -6 -6 -6 -6 -7 -7 -8 -8 -9 -9 -9 -9 -9
11 12 11 11 11 11 9 8 7 6 6 5 4 4 3 3 2 1 0 -0 -0 -1 -2 -2 -2 -2 -3 -4 -5 -6 -6 -6 -6 -6 -7 -7 -8 -8 -9 -10 -10 -10 -10 -10
12 10 9 9 10 8 7 6 6 5 4 2 2 3 2 2 1 0 -0 -1 -1 -2 -2 -2 -2 -2 -3 -5 -6 -6 -6 -6 -6 -7 -7 -7 -8 -8 -9 -10 -10 -10 -10 -10
11 10 10 10 7 6 6 5 4 3 0 1 2 2 2 1 0 -0 -1 -2 -2 -2 -2 -2 -2 -3 -5 -6 -6 -6 -6 -6 -6 -7 -7 -7 -8 -8 -9 -9 -10 -10 -10 -10
10 8 8 8 6 5 4 3 2 1 1 2 2 1 1 1 -0 -1 -2 -2 -2 -2 -2 -3 -4 -6 -7 -7 -6 -6 -6 -6 -7 -7 -8 -8 -8 -9 -9 -10 -10 -10 -10 -10
8 5 5 4 3 1 1 0 -1 1 1 2 2 1 0 -1 -1 -2 -2 -2 -3 -3 -4 -5 -6 -7 -7 -6 -6 -6 -7 -7 -7 -7 -8 -9 -9 -9 -9 -10 -10 -10 -10 -10
5 5 3 2 0 0 0 -0 1 2 2 1 0 -0 -1 -1 -2 -2 -2 -3 -3 -4 -5 -5 -6 -6 -7 -7 -7 -7 -7 -6 -7 -8 -8 -9 -9 -10 -10 -9 -10 -10 -10 -11
1 0 -0 -1 -1 -0 1 1 1 1 0 0 -0 -1 -2 -2 -2 -2 -3 -3 -3 -4 -4 -5 -6 -7 -7 -7 -7 -7 -7 -7 -7 -7 -7 -8 -8 -9 -9 -10 -9 -10 -10 -10
-2 -2 -2 0 1 1 1 0 1 0 -0 -1 -2 -2 -2 -2 -2 -2 -3 -3 -3 -4 -4 -5 -7 -7 -7 -8 -7 -7 -7 -7 -7 -7 -8 -8 -8 -8 -9 -9 -9 -10 -10 -10
0 0 0 1 1 1 1 0 -0 -1 -2 -2 -2 -2 -2 -2 -2 -2 -3 -3 -3 -4 -5 -6 -6 -7 -7 -8 -8 -7 -7 -7 -7 -7 -8 -8 -8 -8 -9 -9 -9 -9 -9 -10
0 0 -0 -0 -1 -1 -1 -2 -2 -2 -2 -2 -2 -2 -2 -2 -2 -3 -3 -4 -4 -5 -5 -6 -7 -7 -7 -8 -8 -7 -7 -7 -7 -7 -7 -7 -8 -8 -8 -8 -9 -9 -9 -9
-1 -1 -1 -1 -1 -1 -1 -1 -2 -2 -2 -2 -2 -2 -2 -3 -3 -3 -4 -4 -5 -6 -6 -7 -7 -7 -7 -8 -8 -7 -7 -7 -7 -7 -7 -7 -7 -7 -7 -7 -8 -8 -9 -10
-1 -1 -1 -2 -2 -2 -2 -2 -2 -2 -2 -2 -2 -2 -3 -3 -3 -4 -5 -5 -6 -7 -7 -8 -8 -7 -7 -8 -8 -8 -8 -7 -7 -7 -7 -7 -7 -7 -7 -7 -7 -7 -8 -9
-2 -2 -2 -2 -2 -2 -2 -3 -3 -3 -3 -3 -3 -3 -4 -4 -4 -4 -5 -6 -7 -7 -7 -7 -7 -8 -8 -8 -8 -8 -8 -9 -8 -8 -8 -8 -8 -8 -7 -7 -7 -7 -7 -8
-2 -2 -3 -3 -3 -3 -3 -3 -3 -3 -4 -4 -4 -4 -4 -5 -5 -6 -6 -6 -7 -7 -8 -8 -8 -8 -8 -8 -8 -8 -8 -8 -8 -9 -9 -9 -9 -9 -8 -8 -7 -8 -8 -8
-2 -2 -2 -3 -3 -3 -4 -4 -5 -5 -5 -5 -5 -5 -5 -5 -6 -6 -7 -7 -7 -7 -8 -8 -8 -8 -8 -8 -8 -8 -8 -8 -8 -8 -7 -8 -9 -9 -9 -8 -8 -8 -8 -8

GFSNGP_850_temp_018.txt.gz
Temp
9 9 11 12 12 10 10 10 9 10 8 9 8 7 8 8 7 7 7 7 7 7 6 6 6 5 5 5 4 3 3 2 1 1 0 -0 -1 -1 -2 -2 -3 -4 -4 -4
10 8 8 10 10 9 9 10 8 9 8 8 10 9 8 8 7 7 7 7 7 6 6 6 5 5 5 4 3 3 2 2 1 0 -0 -1 -1 -2 -3 -3 -3 -3 -4 -4
7 5 6 7 8 8 9 8 9 9 10 6 6 7 7 7 7 8 8 7 7 6 6 6 5 5 4 3 3 2 2 1 1 -0 -1 -2 -2 -3 -3 -4 -4 -4 -4 -4
3 3 6 10 10 9 9 10 8 9 8 7 8 7 8 8 8 8 7 7 6 6 6 5 4 4 3 3 2 1 1 0 -1 -1 -2 -2 -3 -3 -4 -4 -4 -4 -4 -5
3 4 7 12 10 9 9 9 8 8 7 7 7 7 7 8 8 8 7 7 6 6 5 4 4 3 2 2 1 0 -0 -1 -2 -2 -3 -3 -3 -4 -4 -4 -4 -5 -6 -6
-1 4 5 9 9 11 11 7 9 8 6 6 6 3 6 9 8 7 6 6 6 5 4 3 3 2 2 1 0 -1 -2 -2 -2 -3 -3 -4 -4 -4 -4 -5 -5 -5 -6 -6
-4 1 4 7 10 11 8 8 8 10 9 6 5 8 10 9 8 7 6 5 5 4 3 3 2 2 1 -0 -1 -1 -2 -2 -2 -3 -4 -4 -5 -5 -5 -5 -5 -6 -6 -7
-0 -0 6 8 9 8 9 11 12 11 11 10 11 9 8 8 6 5 5 5 4 3 3 2 1 0 -0 -1 -1 -1 -2 -2 -2 -3 -4 -5 -5 -5 -5 -6 -6 -7 -7 -8
5 5 8 9 10 12 11 12 12 12 13 11 9 7 7 6 5 5 5 4 3 2 2 1 1 -0 -1 -1 -2 -2 -2 -3 -4 -5 -5 -5 -5 -6 -6 -7 -7 -7 -8 -8
6 9 7 10 11 11 11 11 11 11 12 11 9 7 6 5 4 1 3 3 2 2 1 1 -0 -1 -1 -2 -2 -2 -3 -4 -5 -6 -5 -6 -6 -6 -6 -7 -8 -8 -8 -9
4 7 9 11 12 13 12 12 11 11 10 9 8 6 6 4 2 3 3 2 2 1 0 -0 -1 -1 -2 -2 -3 -3 -4 -6 -7 -6 -6 -6 -6 -7 -7 -8 -9 -9 -9 -9
5 12 10 11 13 12 12 12 11 10 9 7 6 6 4 1 2 2 2 2 1 0 -1 -1 -1 -2 -2 -3 -3 -4 -5 -6 -7 -7 -6 -6 -7 -7 -8 -8 -9 -10 -10 -10
11 12 11 11 11 11 10 10 9 7 7 6 5 3 1 1 2 2 2 1 0 -1 -1 -1 -2 -2 -2 -3 -5 -6 -6 -6 -6 -6 -6 -7 -7 -8 -8 -9 -9 -10 -10 -10
12 10 9 10 10 10 9 8 6 6 5 3 2 0 0 2 2 2 1 -0 -1 -1 -1 -2 -2 -2 -3 -5 -6 -6 -6 -6 -6 -6 -6 -7 -7 -7 -8 -9 -9 -10 -10 -10
10 9 9 8 8 7 6 5 4 2 1 0 -1 1 1 2 1 0 -0 -1 -1 -1 -2 -2 -2 -3 -4 -5 -6 -6 -6 -6 -6 -6 -7 -7 -8 -8 -8 -9 -9 -9 -10 -10
8 8 7 6 5 3 3 2 1 -0 -0 -1 0 1 2 1 -0 -1 -1 -1 -2 -2 -2 -2 -3 -5 -5 -6 -7 -7 -6 -6 -7 -7 -7 -7 -8 -8 -9 -9 -9 -10 -10 -11
5 4 3 2 1 0 -0 0 -0 -1 0 -0 1 1 -0 -1 -1 -1 -1 -2 -2 -2 -3 -4 -4 -5 -5 -6 -7 -7 -7 -7 -7 -7 -7 -7 -8 -9 -9 -10 -9 -10 -10 -10
2 1 -0 -0 -0 -1 -2 -1 -1 -1 -0 1 0 -0 -1 -1 -1 -1 -2 -2 -2 -3 -4 -4 -4 -5 -6 -7 -8 -8 -8 -8 -8 -7 -7 -8 -8 -8 -9 -9 -9 -10 -10 -10
-1 -1 -2 -2 -2 -2 -2 -1 0 0 0 0 -0 -1 -1 -1 -2 -2 -2 -3 -3 -3 -4 -4 -4 -5 -7 -7 -8 -8 -8 -8 -7 -7 -7 -7 -8 -8 -8 -9 -9 -9 -10 -10
-2 -2 -2 -1 0 0 -0 0 -0 -1 -1 -1 -2 -2 -2 -2 -2 -2 -2 -3 -3 -3 -4 -4 -5 -5 -6 -7 -7 -8 -8 -8 -7 -7 -7 -7 -7 -8 -8 -8 -9 -9 -9 -9
-1 -1 -1 -1 -1 -1 -1 -1 -1 -1 -2 -2 -2 -2 -2 -2 -2 -3 -3 -3 -2 -4 -4 -5 -5 -6 -6 -7 -7 -8 -8 -8 -8 -7 -7 -7 -7 -8 -8 -8 -8 -8 -8 -9
-0 -1 -1 -1 -1 -1 -1 -1 -1 -1 -1 -2 -2 -3 -3 -3 -3 -3 -3 -3 -3 -4 -5 -5 -6 -7 -8 -8 -8 -8 -8 -8 -8 -7 -7 -7 -7 -7 -7 -7 -7 -7 -7 -8
-1 -1 -2 -2 -2 -2 -2 -3 -3 -3 -3 -3 -3 -3 -3 -3 -3 -4 -3 -4 -4 -5 -6 -6 -7 -8 -8 -8 -8 -8 -8 -8 -8 -8 -8 -8 -8 -8 -8 -8 -8 -8 -7 -7
-2 -2 -3 -3 -3 -3 -3 -3 -3 -3 -3 -3 -3 -3 -4 -4 -4 -4 -4 -5 -5 -6 -6 -7 -7 -7 -8 -8 -9 -9 -9 -9 -9 -9 -9 -9 -9 -9 -9 -9 -8 -8 -8 -8
-2 -2 -3 -3 -3 -3 -3 -3 -3 -3 -4 -4 -4 -4 -5 -5 -5 -5 -5 -5 -6 -7 -7 -7 -7 -8 -8 -9 -9 -9 -9 -9 -9 -9 -8 -8 -8 -9 -10 -10 -10 -9 -9 -8
-3 -3 -3 -4 -4 -4 -5 -5 -5 -6 -6 -7 -7 -7 -6 -6 -6 -6 -6 -6 -7 -7 -7 -7 -7 -8 -8 -9 -9 -9 -9 -9 -9 -9 -9 -8 -8 -8 -8 -8 -9 -9 -9 -9
-3 -3 -3 -4 -4 -5 -6 -7 -7 -7 -8 -10 -9 -8 -8 -8 -8 -7 -7 -7 -7 -7 -8 -8 -8 -8 -9 -9 -10 -10 -10 -10 -10 -9 -9 -9 -9 -9 -8 -8 -8 -9 -10 -9

GFSNGP_850_temp_021.txt.gz
Temp
10 10 11 12 12 11 12 12 13 13 11 13 13 12 10 8 6 7 7 7 7 8 7 7 6 5 5 4 4 3 3 3 2 1 1 0 -1 -1 -2 -3 -3 -3 -3 -4
10 9 9 11 11 11 11 10 11 11 12 12 11 9 8 8 7 6 7 7 8 7 7 7 6 5 4 4 3 3 3 2 1 1 0 -0 -1 -2 -3 -3 -3 -4 -4 -4
10 7 8 10 11 11 10 10 12 12 14 9 9 8 9 8 7 7 7 8 7 7 7 6 5 5 4 4 3 3 2 1 1 -0 -1 -1 -2 -2 -3 -3 -4 -4 -4 -4
8 5 11 13 10 10 11 11 10 10 10 10 9 9 9 9 9 8 8 8 7 7 6 6 5 5 4 3 3 2 1 0 -0 -1 -2 -2 -3 -3 -4 -4 -4 -4 -5 -5
8 9 10 14 10 10 10 13 11 11 10 7 7 7 8 9 9 9 8 8 7 6 6 5 5 4 3 3 2 1 1 -0 -1 -2 -2 -2 -3 -4 -4 -4 -4 -5 -5 -5
4 9 10 12 10 10 10 11 11 10 8 6 7 9 11 11 9 8 8 7 6 6 5 5 4 3 3 2 1 1 -0 -1 -2 -2 -2 -3 -4 -4 -4 -5 -5 -5 -5 -6
3 8 8 9 9 10 11 12 10 10 10 6 8 11 12 11 9 8 7 6 5 5 4 4 3 2 2 1 1 -0 -1 -2 -2 -2 -2 -3 -4 -5 -5 -5 -5 -5 -6 -6
2 6 9 8 9 11 11 12 12 11 12 11 13 12 10 9 8 6 6 5 4 3 4 3 2 2 1 0 -1 -1 -2 -2 -2 -2 -3 -4 -5 -5 -5 -5 -6 -6 -7 -7
8 9 9 10 11 13 11 11 12 12 12 11 11 11 9 8 7 5 5 4 3 3 2 2 2 1 0 -1 -1 -2 -2 -2 -2 -3 -4 -5 -6 -6 -6 -6 -7 -7 -7 -8
7 9 7 10 11 12 12 11 12 11 11 10 10 8 7 6 5 4 3 1 1 2 2 1 1 -0 -1 -1 -2 -2 -2 -2 -4 -5 -6 -6 -6 -6 -6 -6 -7 -8 -8 -8
6 8 9 12 12 12 12 12 12 11 10 9 9 7 6 5 3 2 1 0 2 2 1 1 0 -0 -1 -1 -2 -2 -2 -4 -5 -6 -7 -7 -6 -6 -7 -7 -8 -8 -9 -9
9 12 10 11 11 11 10 11 11 10 10 8 7 6 5 3 2 1 1 2 2 1 1 0 -1 -1 -1 -2 -2 -3 -3 -5 -6 -6 -6 -6 -6 -7 -7 -7 -8 -8 -9 -9
10 9 9 10 10 10 9 9 9 8 6 5 4 4 2 1 -0 1 1 2 1 0 -0 -1 -1 -1 -1 -2 -2 -3 -5 -6 -6 -6 -6 -6 -6 -7 -7 -8 -8 -8 -9 -10
8 7 9 8 7 7 7 7 6 5 4 3 1 -0 -1 -2 -2 -0 1 0 0 -0 -1 -2 -1 -2 -2 -3 -3 -5 -6 -6 -6 -6 -6 -6 -7 -7 -7 -8 -8 -8 -9 -10
7 6 6 5 5 5 3 2 2 -0 -0 -1 -1 -2 -3 -2 -2 0 0 -0 -1 -1 -2 -2 -2 -2 -3 -3 -4 -5 -6 -7 -7 -7 -7 -7 -7 -7 -7 -8 -8 -9 -9 -10
2 3 3 3 0 -0 -0 -0 -0 -1 -2 -3 -3 -2 -2 -0 -1 -0 -1 -1 -2 -2 -2 -2 -2 -3 -3 -4 -5 -6 -7 -7 -8 -7 -7 -7 -7 -7 -7 -8 -9 -9 -9 -9
2 -0 -1 -1 -1 -1 -1 -2 -2 -2 -2 -2 -1 -0 -0 -1 -1 -1 -1 -2 -2 -2 -2 -3 -3 -3 -4 -4 -5 -7 -8 -8 -8 -7 -8 -8 -7 -7 -8 -8 -9 -9 -9 -9
-0 -1 -1 -2 -2 -2 -2 -2 -1 -0 0 1 -0 -1 -1 -1 -2 -2 -2 -2 -2 -2 -2 -3 -3 -4 -4 -5 -6 -7 -8 -8 -8 -8 -7 -7 -7 -7 -8 -8 -8 -8 -9 -9
-1 -1 -1 -1 -1 -1 0 0 0 0 -1 -1 -1 -1 -2 -2 -2 -2 -3 -3 -2 -2 -2 -3 -4 -4 -5 -5 -6 -7 -7 -7 -8 -8 -8 -7 -7 -7 -7 -8 -8 -8 -8 -9
-1 -0 -0 -0 -1 -1 -1 -1 -1 -1 -1 -1 -1 -2 -2 -2 -2 -2 -3 -2 -2 -2 -3 -3 -4 -5 -6 -6 -6 -7 -7 -7 -8 -8 -8 -8 -7 -7 -7 -7 -8 -8 -8 -8
-1 -1 -1 -1 -1 -2 -2 -2 -2 -2 -2 -2 -2 -2 -3 -3 -3 -3 -3 -3 -2 -3 -4 -4 -5 -6 -6 -7 -7 -8 -8 -8 -8 -8 -8 -8 -7 -7 -7 -7 -8 -8 -8 -8
-2 -2 -2 -2 -2 -2 -3 -3 -3 -3 -3 -3 -3 -3 -3 -3 -3 -3 -3 -4 -4 -4 -5 -5 -6 -6 -7 -7 -8 -8 -8 -8 -8 -8 -8 -8 -8 -8 -8 -8 -8 -8 -8 -8
-2 -2 -2 -3 -3 -3 -3 -3 -3 -3 -3 -3 -3 -4 -4 -4 -5 -5 -5 -5 -5 -5 -6 -6 -6 -6 -7 -7 -8 -8 -9 -8 -8 -9 -9 -9 -9 -9 -9 -9 -9 -9 -9 -9
-3 -3 -3 -3 -3 -3 -3 -3 -3 -4 -4 -4 -4 -5 -5 -5 -5 -6 -6 -6 -6 -6 -6 -6 -7 -7 -7 -7 -8 -8 -9 -9 -9 -9 -9 -9 -9 -9 -9 -9 -9 -10 -10 -10
-3 -3 -3 -3 -3 -3 -4 -5 -5 -5 -5 -6 -6 -6 -7 -8 -8 -7 -8 -8 -7 -7 -7 -7 -7 -7 -8 -8 -8 -8 -9 -9 -10 -10 -10 -10 -9 -9 -9 -9 -9 -8 -9 -10
-3 -3 -4 -5 -5 -6 -7 -7 -8 -8 -8 -8 -8 -8 -8 -8 -9 -9 -9 -9 -9 -8 -8 -7 -7 -8 -8 -9 -9 -9 -10 -10 -11 -11 -10 -10 -10 -10 -10 -10 -9 -9 -8 -8
-4 -5 -5 -6 -7 -8 -8 -9 -9 -9 -9 -10 -10 -10 -10 -10 -10 -10 -11 -10 -10 -9 -9 -8 -8 -9 -9 -10 -10 -10 -11 -11 -12 -12 -11 -11 -11 -11 -11 -10 -10 -9 -9 -9

GFSNGP_850_temp_024.txt.gz
Temp
16 15 16 17 17 17 17 18 16 19 18 21 20 19 18 16 15 13 12 11 10 9 9 7 6 6 5 5 5 4 3 3 3 2 1 1 -0 -1 -1 -2 -2 -2 -3 -3
14 14 14 15 17 17 18 18 17 18 18 20 19 17 16 14 13 12 11 10 10 9 8 7 6 6 6 4 4 4 3 2 2 2 0 -0 -1 -1 -2 -2 -2 -3 -3 -4
15 12 13 12 15 17 17 17 17 17 19 20 16 16 16 15 13 12 11 10 9 8 8 7 6 6 5 4 4 4 3 2 1 0 -0 -1 -1 -2 -2 -2 -3 -3 -4 -4
13 9 12 18 15 16 17 18 18 17 19 17 17 14 13 13 14 12 11 10 9 8 7 6 5 6 4 4 4 3 3 2 0 -1 -1 -1 -2 -2 -2 -3 -3 -3 -4 -5
11 14 16 18 15 14 14 17 18 18 18 17 12 11 14 12 12 12 10 9 9 8 6 5 6 5 5 4 2 3 2 0 -1 -1 -2 -2 -2 -2 -3 -3 -4 -4 -4 -5
9 12 13 16 13 13 14 15 15 15 15 13 12 14 17 14 13 10 9 8 8 6 6 6 4 4 4 3 3 1 1 0 -0 -2 -3 -3 -3 -3 -4 -4 -4 -5 -5 -6
11 11 14 15 13 12 14 15 14 13 13 12 13 15 13 13 12 9 8 7 6 7 5 4 4 3 3 2 2 1 0 -0 -2 -3 -3 -3 -4 -4 -4 -4 -5 -5 -5 -6
9 10 11 12 12 14 15 14 12 13 13 12 13 11 9 9 9 8 7 5 5 5 4 3 2 2 2 1 1 0 -0 -1 -3 -3 -4 -4 -4 -4 -4 -5 -5 -6 -6 -6
14 15 13 12 14 13 11 12 12 11 12 11 11 10 9 8 7 5 4 3 3 1 2 -0 1 2 1 0 0 -1 -1 -2 -3 -4 -5 -5 -5 -5 -5 -5 -6 -6 -6 -7
12 15 14 13 12 12 12 11 11 11 11 10 10 10 8 6 5 4 3 2 2 1 -0 1 1 1 0 0 -1 -1 -2 -3 -4 -4 -4 -5 -5 -6 -6 -6 -6 -6 -7 -7
11 13 13 13 12 11 11 11 10 10 10 9 9 9 8 5 3 2 -0 0 0 -1 -1 0 1 0 -0 -1 -1 -2 -3 -4 -5 -5 -5 -5 -5 -6 -6 -6 -6 -7 -7 -8
13 12 12 12 11 10 9 9 8 8 8 6 6 7 4 3 -0 0 0 -1 -2 -1 0 0 0 -0 -1 -1 -1 -2 -3 -4 -5 -6 -5 -6 -6 -6 -6 -6 -7 -7 -7 -8
9 8 8 9 8 6 6 5 5 5 4 3 3 2 -0 -0 -0 -2 -2 -2 -2 -0 0 -0 -1 -1 -1 -1 -2 -3 -3 -4 -6 -6 -6 -6 -7 -7 -7 -6 -7 -7 -8 -8
5 6 9 6 5 3 3 2 2 1 -0 -1 -2 -1 -1 -2 -2 -2 -3 -2 -0 -0 -1 -1 -1 -1 -2 -2 -3 -3 -4 -5 -6 -6 -7 -6 -7 -7 -7 -7 -7 -7 -8 -8
3 4 4 3 3 2 1 -0 -1 -1 -1 -2 -1 -2 -2 -2 -2 -2 -0 0 0 -0 -1 -1 -2 -2 -2 -3 -3 -4 -5 -6 -6 -7 -7 -7 -7 -7 -7 -7 -7 -8 -8 -8
1 2 2 1 -0 -0 -0 -1 -1 -2 -1 -2 -2 -1 -1 -0 0 -0 -1 -1 -1 -1 -2 -2 -2 -3 -3 -3 -4 -4 -6 -6 -7 -7 -7 -7 -7 -7 -7 -7 -7 -7 -8 -8
2 -1 -1 -1 -1 -2 -1 -1 -1 -1 -0 -0 -1 -1 -1 -2 -1 -1 -2 -2 -2 -2 -2 -2 -2 -3 -3 -4 -4 -5 -6 -6 -7 -7 -7 -7 -7 -7 -7 -7 -7 -7 -8 -8
0 -1 -1 -0 -0 -1 -1 -1 -2 -2 -2 -1 -1 -1 -1 -1 -2 -2 -2 -2 -2 -2 -2 -2 -3 -3 -3 -4 -4 -5 -6 -6 -7 -7 -7 -7 -7 -7 -7 -7 -7 -8 -8 -9
-1 -1 -2 -2 -2 -2 -2 -1 -1 -1 -2 -2 -2 -2 -2 -2 -2 -2 -2 -2 -2 -2 -2 -2 -3 -3 -4 -4 -5 -5 -6 -6 -7 -7 -7 -7 -8 -8 -8 -7 -7 -7 -8 -8
-2 -1 -1 -1 -1 -1 -2 -2 -2 -2 -2 -2 -2 -2 -2 -2 -3 -3 -3 -3 -3 -3 -3 -3 -3 -3 -4 -4 -5 -6 -7 -7 -7 -7 -7 -7 -8 -8 -8 -8 -7 -7 -7 -8
-1 -1 -2 -2 -2 -2 -2 -2 -2 -2 -3 -3 -3 -3 -3 -3 -3 -3 -3 -4 -4 -4 -4 -4 -4 -4 -5 -6 -6 -7 -7 -7 -8 -8 -8 -8 -8 -8 -8 -8 -8 -8 -8 -8
-2 -2 -2 -2 -2 -2 -3 -3 -3 -3 -3 -3 -3 -3 -4 -4 -4 -4 -4 -5 -6 -6 -6 -6 -5 -6 -6 -6 -6 -7 -7 -8 -8 -8 -8 -8 -8 -8 -8 -8 -8 -8 -8 -9
-2 -2 -3 -3 -3 -3 -3 -3 -3 -3 -3 -4 -4 -5 -5 -6 -7 -8 -7 -8 -8 -8 -8 -7 -7 -6 -6 -6 -7 -7 -7 -8 -8 -8 -9 -9 -9 -9 -9 -9 -9 -9 -9 -9
-3 -3 -3 -4 -4 -3 -3 -3 -4 -5 -5 -6 -7 -7 -8 -8 -8 -9 -9 -9 -9 -10 -10 -9 -8 -8 -8 -7 -7 -8 -8 -8 -9 -9 -9 -10 -10 -10 -10 -10 -9 -9 -9 -9
-4 -4 -4 -4 -4 -5 -5 -5 -6 -7 -7 -7 -8 -8 -9 -10 -11 -10 -11 -11 -11 -11 -10 -9 -9 -8 -8 -8 -8 -9 -9 -9 -9 -10 -10 -11 -11 -11 -11 -10 -10 -10 -10 -9
-4 -4 -5 -5 -6 -6 -7 -7 -8 -9 -9 -10 -11 -11 -12 -13 -14 -13 -13 -13 -12 -12 -11 -11 -10 -10 -10 -10 -10 -11 -11 -11 -11 -11 -12 -12 -12 -12 -11 -11 -11 -11 -11 -10
-5 -5 -6 -7 -7 -8 -8 -9 -9 -10 -10 -11 -12 -12 -14 -15 -14 -14 -14 -14 -14 -14 -13 -13 -13 -13 -12 -12 -12 -12 -13 -13 -13 -13 -13 -13 -13 -12 -12 -12 -12 -12 -12 -11

GFSNGP_850_temp_027.txt.gz
Temp
21 20 20 20 21 20 20 20 19 20 22 23 23 22 22 21 19 19 18 17 16 14 13 12 11 9 8 6 6 5 4 5 5 5 3 3 2 1 1 0 -0 -1 -1 -1
17 19 18 18 20 20 21 21 21 21 21 23 21 21 20 19 19 18 18 16 15 14 13 12 11 9 7 5 5 4 4 5 4 3 2 2 1 1 0 -0 -0 -1 -1 -1
16 16 17 13 17 19 20 21 20 19 21 22 21 20 19 19 18 17 16 16 15 14 13 12 11 8 7 5 5 4 5 4 3 2 2 1 1 0 0 -0 -1 -1 -1 -2
15 10 12 20 19 20 19 20 21 21 21 21 21 18 17 17 17 17 16 15 14 13 12 11 10 8 6 5 5 4 4 4 3 2 1 1 0 -0 -0 -1 -1 -1 -2 -3
12 15 18 19 20 18 17 19 20 19 19 19 18 15 17 16 15 15 15 15 14 12 11 10 9 6 5 5 4 4 3 3 2 1 0 -0 -0 -1 -1 -1 -1 -2 -2 -3
13 12 11 17 17 16 17 16 18 17 18 17 16 16 18 16 14 14 13 13 12 11 10 9 7 6 5 4 4 3 3 2 1 -0 -1 -1 -1 -1 -2 -2 -2 -2 -3 -4
13 12 15 18 16 15 15 16 16 16 16 16 16 16 14 14 14 13 13 12 11 11 9 8 6 4 4 3 2 2 0 1 1 -1 -1 -1 -2 -2 -2 -2 -3 -4 -4 -5
13 9 11 16 16 15 16 16 16 15 15 14 14 14 14 12 12 12 12 11 9 7 7 5 3 1 0 0 0 0 1 1 -1 -1 -2 -2 -3 -3 -3 -3 -3 -4 -5 -5
16 16 16 16 16 15 15 14 14 14 14 14 13 13 13 13 11 11 10 8 6 5 2 -0 -1 -2 -2 -0 1 1 -0 -2 -2 -2 -2 -3 -3 -4 -4 -4 -5 -5 -5 -6
14 18 17 16 15 14 14 14 13 13 13 13 12 12 12 12 9 8 8 6 3 0 -1 -1 -1 -2 -1 0 -0 -1 -3 -3 -3 -3 -3 -4 -4 -3 -4 -5 -5 -5 -6 -6
15 16 16 15 15 13 12 12 12 12 11 11 10 10 11 10 7 6 2 0 -1 -1 -2 -2 -2 -2 -1 0 -0 -2 -3 -3 -3 -4 -4 -4 -4 -4 -4 -5 -6 -6 -6 -6
13 13 12 13 12 10 10 9 8 8 9 7 7 8 7 5 3 -0 -2 -1 -2 -3 -3 -2 -2 -0 -0 -1 -1 -1 -2 -2 -4 -4 -5 -5 -5 -5 -5 -6 -6 -6 -6 -6
11 9 10 10 8 7 6 5 5 4 4 3 2 2 0 -2 -2 -3 -3 -2 -2 -3 -3 -1 0 -0 -1 -1 -2 -2 -2 -3 -3 -5 -5 -5 -5 -5 -6 -6 -6 -6 -6 -6
7 8 10 7 7 5 4 2 0 -0 -1 -1 -1 -1 -2 -2 -1 -1 -1 -1 -1 -1 -0 -1 -2 -1 -1 -1 -2 -2 -3 -4 -5 -5 -5 -6 -6 -6 -6 -6 -6 -6 -6 -6
6 6 6 5 4 2 0 -0 -1 -1 -1 -1 -1 -0 -1 -1 -1 -1 -2 -2 -1 -0 -1 -1 -1 -2 -3 -3 -2 -3 -4 -5 -5 -6 -6 -6 -7 -7 -7 -6 -6 -6 -6 -7
4 4 2 1 -0 -1 -1 -1 -1 -1 -1 -1 -1 -1 -1 -1 -2 -2 -2 -2 -1 -2 -3 -3 -2 -2 -2 -3 -4 -4 -4 -4 -5 -5 -6 -6 -7 -7 -6 -6 -7 -7 -6 -7
1 -0 -1 -1 -1 -0 -0 0 1 0 -0 -1 -2 -2 -1 -1 -1 -2 -2 -2 -2 -2 -2 -2 -2 -2 -3 -4 -4 -4 -4 -4 -5 -5 -6 -6 -6 -6 -6 -7 -7 -7 -7 -7
1 -0 -0 -0 -0 -0 -0 -1 -2 -2 -2 -1 -1 -1 -1 -2 -2 -2 -2 -2 -2 -2 -2 -2 -2 -2 -3 -3 -4 -4 -4 -5 -5 -6 -6 -6 -6 -6 -7 -7 -7 -7 -7 -7
0 0 0 -0 -0 -1 -1 -2 -2 -2 -2 -2 -2 -2 -2 -2 -3 -3 -3 -3 -2 -3 -3 -3 -4 -4 -4 -4 -4 -5 -5 -5 -6 -6 -7 -7 -7 -7 -7 -7 -7 -7 -7 -7
-0 -1 -1 -2 -1 -1 -2 -2 -2 -2 -2 -2 -2 -2 -2 -2 -3 -3 -3 -3 -4 -4 -5 -5 -5 -5 -5 -5 -5 -5 -6 -6 -6 -7 -7 -7 -7 -7 -7 -7 -7 -7 -7 -7
-1 -2 -2 -2 -2 -2 -2 -2 -3 -3 -3 -3 -3 -3 -3 -3 -4 -4 -4 -6 -6 -6 -7 -7 -8 -7 -6 -7 -6 -6 -5 -6 -6 -7 -7 -7 -7 -7 -7 -7 -7 -8 -8 -8
-2 -2 -2 -2 -3 -4 -3 -3 -3 -3 -3 -3 -3 -4 -4 -5 -6 -7 -8 -8 -8 -8 -8 -8 -9 -9 -9 -9 -8 -8 -7 -7 -7 -7 -7 -8 -8 -8 -8 -8 -8 -8 -8 -8
-3 -3 -2 -3 -3 -4 -3 -3 -4 -4 -4 -5 -5 -6 -6 -7 -9 -9 -9 -10 -10 -11 -11 -10 -10 -10 -10 -9 -8 -8 -8 -7 -7 -8 -8 -9 -9 -10 -10 -10 -10 -10 -11 -11
-4 -4 -3 -3 -4 -4 -5 -5 -5 -7 -6 -7 -9 -9 -9 -10 -11 -11 -11 -12 -12 -12 -12 -11 -11 -11 -11 -10 -9 -9 -8 -8 -8 -9 -9 -10 -10 -11 -11 -11 -11 -11 -11 -10
-4 -4 -4 -4 -6 -6 -7 -6 -7 -9 -9 -10 -11 -11 -12 -12 -13 -13 -13 -14 -14 -14 -14 -13 -13 -12 -12 -13 -12 -12 -12 -12 -11 -11 -12 -12 -12 -12 -12 -12 -12 -12 -11 -11
-6 -6 -7 -6 -7 -8 -8 -8 -9 -11 -11 -12 -12 -13 -13 -13 -14 -15 -15 -15 -15 -16 -16 -15 -15 -14 -14 -14 -14 -14 -14 -14 -13 -13 -13 -13 -13 -14 -13 -13 -12 -12 -12 -12
-6 -6 -8 -8 -9 -8 -9 -9 -11 -12 -13 -13 -13 -14 -14 -14 -15 -16 -16 -16 -16 -17 -17 -17 -17 -16 -15 -16 -16 -16 -16 -16 -15 -15 -15 -15 -15 -15 -14 -14 -13 -13 -13 -13

GFSNGP_850_temp_030.txt.gz
Temp
21 22 21 20 21 21 21 20 18 19 21 22 23 22 22 22 21 20 20 19 19 18 16 14 13 12 11 10 8 6 5 5 5 4 5 3 3 3 2 2 1 0 -0 -0
18 20 20 19 20 21 21 21 21 21 21 23 23 21 20 20 20 20 19 19 19 18 17 15 13 12 11 9 7 6 5 5 5 4 4 4 2 2 1 1 0 0 -0 -1
15 17 16 13 17 19 20 21 21 19 21 22 21 21 20 19 19 19 18 17 17 17 16 15 14 12 11 9 7 6 5 4 3 4 3 2 2 1 1 1 0 -0 -1 -1
14 11 13 19 21 20 19 20 21 21 21 20 18 18 18 18 18 17 17 17 16 16 15 15 14 12 10 8 7 5 4 4 3 3 2 2 1 1 0 -0 -0 -1 -1 -1
11 14 17 18 20 19 18 18 19 19 19 19 18 17 18 17 16 15 15 15 15 15 14 13 12 11 9 7 6 5 3 2 2 1 1 1 0 -0 -1 -1 -1 -1 -1 -2
12 12 12 17 18 18 18 16 18 17 17 17 17 14 16 15 15 15 14 14 14 13 13 12 11 9 7 5 5 3 2 0 0 -1 0 0 -1 -1 -2 -2 -2 -2 -2 -3
12 11 14 19 17 16 15 14 16 16 16 16 15 15 15 14 14 13 14 13 13 12 11 10 9 7 5 4 3 -0 -2 -1 -1 -1 -0 -2 -3 -3 -3 -3 -3 -2 -3 -3
12 9 10 18 16 15 16 16 15 15 15 14 14 14 14 14 14 13 12 11 9 8 7 6 5 3 1 1 -2 -3 -3 -2 -1 -1 -1 -3 -3 -3 -3 -3 -3 -4 -4 -4
14 14 16 17 16 16 15 15 14 14 14 14 13 13 13 13 13 11 10 8 7 5 3 1 1 0 -0 -2 -3 -3 -2 -0 0 -1 -3 -3 -3 -3 -3 -4 -4 -4 -5 -5
15 18 18 17 16 16 14 13 13 13 13 12 12 11 11 11 10 9 7 5 3 1 1 0 -0 -0 -1 -2 -2 -2 -1 0 -3 -3 -3 -3 -3 -4 -4 -3 -4 -4 -5 -5
16 16 16 15 13 12 11 11 10 10 10 8 9 10 9 7 5 3 1 1 1 0 -1 -2 -1 -2 -2 -2 -1 -1 -2 -2 -2 -2 -2 -3 -4 -4 -4 -4 -5 -5 -5 -6
13 13 13 12 9 9 9 8 7 7 6 5 5 4 4 2 1 2 1 0 -0 -0 -0 -1 -2 -2 -2 -2 -2 -2 -2 -2 -2 -2 -3 -4 -4 -5 -5 -5 -5 -5 -6 -6
12 10 10 9 8 6 4 3 3 3 2 2 2 3 3 2 1 0 0 -0 -1 -2 -2 -3 -3 -1 -1 -1 -2 -2 -2 -2 -2 -3 -4 -5 -5 -5 -5 -5 -6 -5 -6 -6
8 9 8 8 6 4 2 1 2 2 1 1 0 0 -0 -1 -1 -1 -2 -2 -2 -2 -2 -2 -2 -2 -2 -2 -2 -2 -2 -3 -4 -4 -4 -4 -5 -5 -6 -6 -6 -6 -6 -6
7 7 6 4 2 2 1 0 -0 -1 -1 -2 -2 -1 -1 -1 -1 -1 -1 -2 -2 -1 -2 -2 -2 -2 -2 -2 -3 -3 -3 -3 -4 -4 -4 -4 -5 -5 -6 -6 -6 -6 -6 -6
4 4 3 2 1 1 1 0 -0 -0 -0 -1 -1 -1 -1 -1 -1 -2 -2 -2 -2 -2 -2 -2 -2 -2 -2 -2 -3 -3 -3 -3 -4 -4 -4 -4 -5 -6 -6 -6 -6 -6 -6 -6
2 1 1 1 1 1 1 0 -1 -1 -1 -1 -1 -1 -1 -1 -2 -2 -2 -2 -2 -2 -2 -2 -3 -3 -3 -3 -4 -4 -4 -4 -4 -4 -4 -4 -5 -6 -6 -6 -6 -6 -7 -6
2 1 1 1 1 0 -0 -1 -1 -1 -1 -2 -2 -2 -2 -2 -2 -3 -3 -2 -2 -2 -3 -4 -4 -4 -4 -5 -5 -5 -5 -5 -5 -5 -5 -5 -5 -6 -6 -6 -7 -7 -7 -7
1 0 0 0 -0 -1 -2 -2 -2 -2 -2 -2 -2 -2 -3 -3 -3 -3 -3 -3 -4 -5 -5 -6 -6 -6 -6 -6 -6 -7 -6 -6 -5 -5 -5 -6 -6 -6 -6 -7 -7 -7 -7 -7
0 -0 -1 -1 -2 -2 -2 -3 -3 -3 -3 -3 -3 -2 -3 -4 -4 -4 -5 -6 -6 -7 -7 -7 -8 -8 -8 -8 -8 -8 -8 -8 -8 -7 -7 -6 -6 -7 -7 -7 -7 -7 -7 -7
-1 -2 -1 -2 -2 -2 -2 -3 -3 -3 -3 -3 -3 -3 -4 -5 -5 -6 -7 -8 -8 -8 -8 -8 -9 -10 -10 -10 -10 -10 -9 -9 -8 -8 -7 -6 -7 -7 -7 -8 -7 -8 -8 -8
-2 -2 -2 -3 -3 -3 -3 -3 -3 -3 -4 -4 -4 -5 -5 -6 -7 -8 -9 -10 -10 -10 -10 -11 -12 -11 -11 -11 -11 -11 -10 -9 -8 -8 -8 -7 -7 -7 -8 -9 -9 -10 -10 -10
-2 -2 -3 -4 -4 -4 -4 -4 -4 -4 -5 -6 -6 -6 -7 -8 -9 -10 -11 -11 -12 -12 -12 -13 -12 -12 -12 -12 -13 -13 -12 -12 -10 -10 -10 -9 -9 -9 -10 -10 -11 -12 -12 -11
-3 -4 -4 -4 -4 -5 -6 -5 -6 -8 -7 -8 -9 -9 -9 -10 -11 -12 -12 -13 -13 -13 -14 -14 -13 -13 -13 -13 -14 -14 -14 -14 -13 -13 -13 -12 -12 -12 -12 -13 -13 -13 -12 -12
-4 -4 -4 -5 -5 -6 -7 -7 -8 -8 -8 -9 -10 -11 -11 -12 -13 -13 -14 -14 -15 -15 -16 -16 -16 -14 -14 -14 -15 -15 -16 -16 -15 -15 -15 -15 -15 -15 -15 -14 -14 -14 -13 -13
-5 -6 -5 -6 -6 -7 -7 -7 -8 -9 -9 -11 -12 -11 -13 -13 -14 -14 -15 -15 -16 -16 -17 -17 -18 -17 -17 -16 -17 -17 -17 -17 -17 -16 -16 -16 -16 -16 -16 -16 -16 -15 -15 -15
-6 -7 -7 -8 -8 -8 -8 -8 -9 -9 -12 -12 -13 -13 -14 -14 -14 -15 -16 -16 -17 -17 -18 -18 -18 -19 -19 -19 -19 -19 -19 -18 -18 -18 -18 -18 -18 -17 -17 -17 -17 -17 -17 -16

GFSNGP_850_temp_033.txt.gz
Temp
17 17 19 19 18 18 18 16 13 14 16 17 19 17 18 19 20 20 20 18 18 17 16 15 14 13 12 11 11 10 9 8 7 5 4 2 2 3 3 1 2 2 1 0
16 17 16 16 17 17 17 18 18 17 16 18 19 19 18 19 19 19 18 18 17 17 16 16 15 13 12 11 10 10 9 7 6 4 2 2 2 1 0 2 1 1 0 0
13 12 13 10 15 16 16 17 17 16 16 14 14 15 17 18 18 17 17 17 17 16 16 15 14 13 12 11 10 8 7 6 4 3 1 1 0 -0 1 1 1 0 -0 -0
8 8 9 13 18 18 17 16 15 15 14 14 15 15 16 16 16 15 15 15 15 15 15 15 14 13 11 11 9 7 5 4 3 2 1 0 -1 -0 1 0 0 -0 -1 -1
8 7 12 15 16 17 16 14 14 13 13 15 16 16 14 15 14 14 14 14 14 14 13 13 13 12 10 8 7 5 4 3 2 1 -1 -2 -2 -1 -0 -1 -2 -2 -2 -2
7 7 7 11 16 17 17 11 14 14 13 13 15 8 10 14 14 14 13 13 13 13 12 11 10 9 8 6 5 4 2 1 -1 -2 -3 -2 -1 -1 -1 -2 -2 -3 -3 -2
4 5 8 14 16 16 11 10 14 15 14 14 11 12 14 14 13 12 12 12 12 12 11 8 7 7 6 4 3 1 -0 -1 -1 -1 -0 -1 -0 -2 -3 -3 -3 -3 -3 -3
6 6 9 15 15 12 11 14 14 14 13 13 13 13 13 12 12 11 11 10 9 9 8 5 5 5 4 3 -0 -1 -1 -0 0 -1 -1 -1 -1 -2 -3 -3 -3 -3 -3 -4
9 8 12 16 15 15 15 13 12 12 12 12 11 11 11 11 10 8 8 8 7 7 5 4 3 3 2 2 1 0 1 -1 -1 -1 -1 -1 -2 -3 -3 -3 -3 -4 -4 -4
11 14 14 14 12 12 12 12 10 10 11 10 9 10 9 9 7 7 5 5 4 4 4 3 2 2 1 -0 -1 -1 -1 -1 -1 -1 -2 -3 -3 -3 -3 -4 -4 -4 -5 -5
12 12 10 10 10 10 10 10 9 9 8 8 8 7 7 5 4 3 3 3 2 2 1 -0 -1 -1 -1 -1 -1 -1 -1 -1 -1 -2 -2 -2 -2 -3 -4 -4 -4 -5 -5 -5
6 10 9 8 8 8 9 7 6 7 6 5 5 4 4 3 2 1 1 0 -0 -1 -1 -1 -1 -1 -1 -1 -1 -1 -1 -2 -2 -2 -3 -3 -3 -3 -4 -5 -5 -5 -5 -6
10 10 8 7 7 6 7 5 4 4 3 3 2 2 1 0 -1 -1 -1 -1 -1 -1 -2 -2 -2 -2 -2 -2 -2 -2 -2 -2 -2 -3 -3 -3 -4 -4 -4 -4 -4 -5 -5 -6
9 8 6 5 2 4 4 3 3 2 1 1 0 -0 -1 -1 -1 -1 -1 -2 -2 -2 -2 -2 -2 -3 -3 -3 -3 -3 -3 -3 -3 -3 -3 -4 -4 -4 -4 -4 -5 -5 -5 -6
8 8 4 3 2 1 1 0 -0 -1 -1 -1 -1 -1 -1 -1 -1 -2 -2 -2 -2 -2 -2 -2 -2 -2 -2 -2 -3 -3 -4 -4 -4 -4 -4 -4 -4 -4 -5 -5 -5 -5 -5 -6
4 4 3 2 1 0 -0 -1 -1 -1 -1 -0 -0 -1 -1 -1 -1 -2 -2 -2 -2 -3 -3 -3 -3 -4 -4 -4 -4 -4 -4 -4 -5 -5 -5 -5 -4 -4 -5 -5 -5 -6 -6 -6
3 1 1 1 1 1 -0 -1 -1 -0 -0 -1 -1 -2 -2 -2 -2 -2 -2 -3 -3 -3 -4 -5 -5 -6 -5 -5 -5 -5 -5 -6 -6 -6 -6 -6 -6 -5 -5 -5 -6 -6 -6 -6
4 2 1 1 0 0 -0 -0 -1 -1 -1 -2 -2 -2 -2 -2 -2 -3 -3 -4 -4 -5 -6 -6 -6 -6 -7 -7 -7 -8 -8 -8 -8 -8 -8 -8 -7 -6 -6 -6 -6 -6 -7 -7
1 1 1 0 0 -0 -1 -1 -2 -2 -2 -3 -2 -2 -3 -3 -3 -4 -5 -5 -6 -6 -7 -8 -8 -8 -8 -9 -10 -10 -10 -10 -10 -10 -9 -9 -8 -8 -8 -7 -6 -7 -7 -7
0 0 0 -0 -1 -1 -2 -3 -3 -3 -3 -3 -3 -3 -4 -4 -5 -5 -6 -8 -8 -9 -9 -9 -9 -9 -10 -10 -10 -11 -12 -12 -11 -10 -9 -9 -8 -8 -7 -7 -7 -7 -8 -7
-0 -1 -1 -1 -2 -3 -3 -3 -3 -3 -3 -3 -3 -4 -5 -5 -6 -7 -8 -9 -10 -10 -10 -10 -10 -11 -11 -11 -11 -12 -12 -13 -13 -12 -12 -11 -10 -9 -8 -8 -7 -8 -8 -8
-1 -1 -2 -2 -2 -3 -4 -3 -3 -4 -4 -4 -4 -5 -6 -7 -8 -9 -10 -10 -11 -11 -11 -11 -11 -12 -12 -12 -12 -13 -13 -13 -14 -13 -13 -13 -12 -11 -11 -11 -11 -11 -10 -11
-3 -3 -3 -3 -3 -4 -4 -4 -4 -5 -5 -6 -6 -7 -8 -9 -10 -10 -11 -12 -12 -12 -12 -13 -13 -12 -13 -13 -13 -14 -14 -14 -15 -15 -15 -15 -15 -14 -14 -13 -13 -13 -13 -13
-3 -4 -4 -4 -4 -5 -5 -7 -7 -7 -8 -8 -8 -9 -10 -10 -11 -11 -12 -13 -13 -14 -14 -15 -15 -15 -15 -15 -15 -15 -15 -16 -16 -16 -16 -16 -16 -16 -16 -16 -15 -15 -15 -14
-4 -4 -5 -6 -6 -6 -6 -7 -8 -8 -8 -8 -9 -10 -10 -11 -12 -13 -14 -14 -15 -15 -16 -16 -17 -17 -17 -17 -17 -17 -17 -17 -17 -17 -17 -17 -17 -17 -17 -17 -17 -17 -16 -16
-5 -5 -6 -6 -6 -7 -7 -7 -7 -8 -9 -9 -10 -11 -12 -13 -14 -14 -14 -15 -16 -16 -17 -18 -18 -18 -18 -19 -19 -18 -18 -18 -18 -18 -18 -19 -18 -18 -18 -18 -18 -18 -18 -17
-6 -7 -7 -7 -7 -8 -8 -7 -8 -9 -10 -10 -12 -13 -13 -14 -15 -15 -15 -16 -17 -18 -18 -18 -19 -19 -19 -19 -20 -19 -19 -19 -19 -19 -19 -19 -19 -19 -19 -19 -19 -19 -18 -18

GFSNGP_850_temp_036.txt.gz
Temp
15 16 17 17 17 16 16 14 13 14 13 16 17 16 17 18 18 18 17 15 15 15 15 15 14 14 13 12 12 11 10 9 8 7 6 5 3 1 2 1 1 -0 1 1
15 14 15 16 16 15 16 16 14 15 15 13 15 16 16 17 17 16 16 16 16 16 16 15 14 14 13 12 11 10 9 8 6 5 4 3 2 0 -0 1 -0 -1 0 0
12 11 12 9 13 15 16 16 16 14 14 13 12 13 15 15 15 15 14 15 15 15 15 15 15 14 13 12 11 10 8 6 5 5 4 3 1 -1 -1 -2 -2 -1 -1 -1
7 7 8 13 15 15 13 12 13 12 13 12 12 13 14 14 14 14 14 14 15 14 14 14 14 13 12 11 9 7 6 5 4 3 2 -0 -2 -2 -1 -0 -1 -1 -0 -1
7 7 10 14 16 14 13 13 13 11 12 13 13 14 13 14 13 13 13 13 14 14 14 14 13 12 11 9 7 6 5 4 3 2 0 -2 -1 -1 -0 -0 -1 -1 -1 -2
5 7 7 11 14 16 13 10 13 12 12 12 13 7 9 13 13 13 13 13 13 13 12 12 12 11 9 7 5 5 3 3 2 -1 -1 -0 -0 -1 -1 -1 -1 -1 -2 -3
2 5 7 10 14 15 11 10 13 13 13 13 9 11 11 12 12 12 12 11 11 11 11 10 9 8 7 4 3 2 1 1 -0 -0 -0 -1 -1 -1 -1 -2 -2 -2 -3 -3
5 5 9 13 14 12 10 12 13 13 13 12 11 11 11 10 10 10 9 9 8 8 7 5 5 5 5 4 3 1 0 0 -0 -0 -1 -1 -1 -1 -1 -2 -3 -3 -3 -3
8 7 11 13 13 14 14 13 11 12 12 12 11 10 9 8 7 7 6 5 5 5 4 3 3 2 2 1 0 0 0 -1 -1 -1 -1 -1 -1 -1 -2 -2 -3 -3 -3 -4
10 9 9 10 11 12 12 12 10 11 11 11 10 8 7 6 4 4 3 3 2 2 2 1 0 0 -0 -1 -1 -1 -1 -1 -1 -1 -1 -1 -1 -2 -2 -2 -3 -3 -4 -4
8 8 8 8 8 8 9 9 9 9 9 9 8 5 4 3 2 2 1 1 1 1 0 -0 -1 -1 -1 -1 -1 -1 -1 -1 -1 -1 -2 -2 -2 -2 -2 -3 -3 -4 -4 -4
7 10 8 7 6 8 8 7 7 8 6 5 5 4 3 2 1 0 -0 -1 -1 -1 -1 -1 -1 -1 -1 -2 -2 -1 -1 -2 -2 -2 -2 -2 -3 -3 -3 -3 -4 -4 -4 -4
8 10 10 6 5 6 7 6 5 5 4 4 2 2 1 0 -1 -1 -1 -1 -1 -2 -2 -2 -2 -2 -2 -2 -2 -3 -3 -3 -3 -4 -4 -4 -4 -4 -4 -4 -4 -4 -4 -5
10 8 3 5 3 4 5 3 3 2 1 1 0 -0 -1 -1 -1 -2 -2 -2 -2 -2 -2 -2 -2 -2 -3 -3 -3 -3 -4 -4 -4 -5 -5 -5 -5 -4 -5 -4 -4 -4 -4 -5
7 8 7 3 3 2 2 2 1 -0 -1 -1 -1 -1 -1 -1 -2 -2 -2 -2 -2 -2 -2 -2 -2 -3 -3 -4 -4 -4 -5 -5 -5 -5 -5 -5 -6 -6 -6 -6 -6 -5 -5 -5
4 5 3 3 1 0 1 0 -0 -1 -1 -1 -1 -1 -2 -2 -2 -2 -2 -2 -2 -2 -3 -4 -5 -5 -6 -6 -6 -6 -6 -6 -6 -7 -7 -7 -7 -8 -8 -8 -7 -7 -6 -5
2 0 1 0 -0 -1 -1 -1 -1 -1 -1 -1 -1 -2 -2 -2 -2 -2 -2 -3 -3 -4 -6 -7 -6 -6 -6 -6 -6 -7 -7 -8 -9 -9 -9 -10 -9 -9 -10 -9 -9 -8 -7 -6
5 3 2 1 0 -0 -1 -1 -0 -1 -1 -1 -2 -2 -2 -2 -2 -3 -3 -4 -5 -6 -6 -6 -7 -7 -7 -8 -8 -9 -9 -10 -10 -11 -11 -11 -11 -11 -10 -10 -9 -9 -8 -8
3 1 1 0 0 -0 -0 -1 -1 -1 -2 -2 -2 -2 -2 -3 -4 -4 -5 -5 -5 -6 -7 -7 -8 -8 -9 -9 -10 -10 -11 -11 -11 -12 -12 -12 -11 -11 -11 -9 -9 -8 -8 -7
1 0 0 -0 -0 -0 -1 -2 -2 -2 -3 -3 -3 -3 -4 -4 -5 -5 -6 -6 -7 -8 -9 -9 -9 -10 -10 -11 -12 -12 -12 -12 -12 -13 -13 -13 -13 -13 -12 -12 -11 -10 -9 -9
0 -0 -0 -0 -1 -2 -2 -3 -3 -3 -3 -4 -4 -4 -4 -5 -6 -6 -7 -8 -9 -10 -11 -11 -11 -11 -12 -12 -13 -13 -13 -13 -13 -13 -14 -14 -14 -14 -13 -13 -12 -13 -13 -13
-0 -1 -1 -1 -2 -3 -3 -4 -3 -3 -4 -4 -5 -5 -6 -6 -7 -8 -9 -10 -11 -12 -13 -13 -12 -12 -12 -13 -13 -13 -14 -14 -14 -14 -15 -15 -15 -15 -15 -15 -14 -14 -14 -14
-2 -2 -3 -3 -3 -3 -4 -4 -5 -5 -5 -5 -6 -6 -7 -8 -9 -10 -11 -12 -13 -14 -14 -14 -14 -14 -14 -14 -14 -14 -15 -15 -15 -16 -16 -17 -17 -17 -17 -17 -16 -16 -16 -15
-3 -4 -4 -4 -4 -5 -5 -6 -6 -6 -6 -7 -8 -9 -9 -10 -11 -12 -13 -14 -14 -14 -15 -15 -15 -15 -15 -15 -15 -15 -16 -16 -17 -17 -17 -18 -18 -18 -18 -18 -17 -17 -17 -17
-4 -4 -5 -5 -6 -6 -6 -7 -8 -8 -9 -9 -10 -10 -11 -11 -12 -13 -14 -14 -15 -15 -16 -16 -16 -16 -16 -16 -16 -17 -17 -18 -18 -18 -18 -18 -18 -18 -18 -18 -18 -18 -18 -18
-5 -5 -6 -6 -7 -7 -8 -8 -8 -9 -9 -10 -11 -11 -12 -13 -13 -14 -15 -15 -16 -16 -16 -16 -16 -17 -17 -18 -18 -18 -18 -19 -18 -18 -19 -19 -19 -19 -19 -19 -19 -19 -19 -19
-6 -6 -7 -8 -8 -9 -9 -9 -9 -9 -10 -10 -11 -12 -13 -14 -15 -15 -16 -16 -17 -16 -17 -17 -17 -18 -18 -18 -18 -19 -19 -19 -19 -19 -19 -19 -19 -19 -19 -19 -19 -19 -19 -19

GFSNGP_850_temp_042.txt.gz
Temp
13 14 14 15 15 12 12 12 12 13 11 13 13 13 14 15 15 16 17 16 16 16 16 15 15 14 16 15 14 14 13 13 11 9 8 7 7 6 5 4 2 1 0 0
13 13 13 14 13 12 13 13 12 12 12 11 13 13 12 12 13 13 13 14 14 15 15 15 14 14 13 12 12 11 11 9 8 7 7 6 5 5 4 2 2 0 0 -0
12 10 12 9 11 12 12 12 13 11 12 11 11 10 11 12 13 13 13 14 14 14 14 15 14 14 14 12 11 10 9 8 7 6 5 4 4 3 1 -0 -0 -0 -0 -0
6 7 9 13 12 13 11 11 12 12 11 10 10 11 11 12 12 13 13 13 13 13 13 13 13 13 13 12 10 8 7 6 5 4 4 3 1 -0 -0 0 -0 -0 -1 -1
8 7 10 13 12 11 12 11 10 9 9 9 10 11 9 11 12 12 12 12 12 12 12 12 12 12 11 10 9 7 6 5 4 3 2 0 -1 -1 0 0 -1 -2 -1 -1
4 7 8 10 12 13 12 10 10 9 7 8 9 8 7 9 10 10 11 11 11 11 10 10 10 9 8 7 6 5 4 3 2 1 -0 -0 0 0 -0 -1 -1 -1 -1 -1
1 5 7 9 12 13 11 10 11 11 10 10 8 9 10 9 10 10 10 9 9 8 8 8 6 5 5 4 3 2 1 1 1 0 0 -0 -0 -1 -1 -1 -1 -1 -1 -1
3 4 9 11 11 11 10 12 13 12 12 11 11 10 10 9 9 8 8 7 6 6 5 3 3 4 3 2 1 0 0 -0 -0 -0 -1 -1 -1 -1 -1 -1 -2 -2 -2 -2
8 8 10 11 12 14 14 13 13 13 13 13 11 10 9 8 7 6 5 5 4 4 3 2 1 1 2 1 0 -0 -0 -1 -1 -1 -1 -2 -2 -2 -2 -2 -3 -3 -3 -3
9 9 8 10 11 13 14 14 14 14 13 13 12 9 7 6 4 4 3 3 3 2 2 1 0 1 0 -0 -1 -1 -1 -1 -1 -1 -1 -2 -2 -2 -3 -3 -3 -4 -4 -4
7 7 7 8 9 11 12 13 13 12 12 11 11 7 6 4 3 2 2 1 1 1 1 0 -1 -0 -1 -1 -1 -1 -1 -2 -2 -2 -2 -2 -3 -3 -3 -4 -4 -5 -5 -5
9 10 11 11 11 10 11 11 11 11 9 8 8 7 4 3 2 1 1 0 0 -0 -0 -1 -1 -1 -1 -1 -1 -2 -2 -2 -3 -3 -3 -3 -3 -3 -3 -4 -4 -5 -6 -7
11 12 11 11 10 9 10 9 9 9 9 7 5 5 3 2 0 0 -0 -0 -1 -1 -2 -2 -2 -2 -2 -2 -2 -3 -3 -3 -4 -4 -4 -4 -5 -5 -5 -4 -5 -6 -7 -7
10 9 5 6 6 7 8 7 6 6 5 5 4 2 2 1 -1 -1 -1 -2 -2 -2 -2 -2 -2 -2 -3 -3 -3 -4 -4 -4 -4 -5 -5 -6 -6 -7 -7 -8 -7 -7 -8 -10
6 8 9 7 5 5 5 5 4 4 3 2 1 1 0 -1 -2 -2 -2 -2 -2 -2 -2 -3 -3 -3 -3 -4 -4 -4 -5 -5 -6 -6 -7 -8 -8 -9 -10 -10 -11 -11 -11 -10
6 6 5 5 3 3 3 2 3 1 0 -0 -1 -1 -1 -1 -2 -2 -3 -3 -3 -2 -3 -3 -4 -4 -4 -5 -5 -6 -6 -7 -7 -8 -9 -9 -10 -10 -10 -11 -12 -13 -13 -13
5 -1 -1 -1 1 1 1 1 1 -0 -1 -1 -2 -2 -2 -2 -2 -2 -3 -3 -3 -3 -4 -4 -5 -5 -6 -6 -6 -7 -8 -8 -9 -9 -10 -10 -11 -11 -12 -12 -13 -13 -13 -13
6 5 3 4 2 0 -0 -0 -1 -2 -2 -2 -2 -2 -2 -2 -2 -3 -3 -4 -4 -4 -5 -5 -6 -6 -7 -7 -8 -8 -9 -10 -10 -11 -11 -12 -12 -13 -13 -13 -13 -14 -14 -14
4 3 2 2 1 1 -1 -2 -2 -3 -3 -2 -2 -3 -3 -3 -3 -3 -4 -5 -5 -6 -6 -6 -7 -7 -8 -8 -9 -10 -10 -11 -11 -12 -12 -13 -13 -14 -14 -14 -14 -15 -15 -15
1 1 1 0 -1 -1 -2 -2 -3 -3 -2 -2 -3 -3 -3 -3 -4 -5 -5 -6 -6 -6 -7 -7 -8 -8 -9 -10 -10 -11 -11 -12 -12 -13 -13 -14 -14 -14 -15 -15 -15 -15 -16 -16
1 -0 -0 -1 -2 -2 -2 -3 -2 -2 -3 -3 -3 -3 -4 -4 -5 -6 -6 -6 -7 -8 -8 -9 -9 -10 -10 -11 -11 -12 -13 -13 -14 -14 -14 -15 -15 -15 -16 -16 -16 -16 -16 -16
-1 -1 -2 -2 -3 -4 -4 -3 -2 -3 -4 -4 -4 -5 -5 -5 -6 -7 -8 -8 -9 -9 -10 -10 -11 -11 -12 -12 -13 -13 -14 -14 -15 -15 -15 -15 -16 -16 -16 -17 -17 -17 -17 -17
-2 -2 -2 -3 -3 -3 -4 -4 -4 -4 -4 -5 -5 -6 -6 -7 -8 -8 -9 -9 -10 -11 -11 -12 -13 -13 -14 -14 -14 -15 -15 -15 -16 -16 -16 -16 -17 -17 -17 -17 -18 -18 -18 -18
-3 -3 -5 -4 -4 -4 -5 -7 -6 -6 -6 -6 -7 -8 -8 -9 -9 -9 -10 -11 -12 -13 -13 -14 -15 -15 -16 -16 -16 -16 -16 -16 -17 -17 -17 -17 -18 -18 -18 -18 -18 -18 -18 -19
-4 -4 -4 -4 -5 -6 -7 -7 -7 -7 -8 -8 -9 -9 -10 -10 -10 -11 -12 -13 -13 -14 -15 -16 -16 -17 -17 -17 -17 -17 -17 -17 -17 -17 -18 -18 -18 -18 -19 -19 -19 -19 -19 -19
-5 -5 -6 -6 -7 -8 -7 -8 -8 -9 -10 -10 -10 -11 -11 -11 -12 -13 -14 -14 -15 -16 -16 -17 -17 -18 -18 -18 -18 -18 -17 -18 -18 -18 -19 -19 -19 -19 -19 -19 -19 -19 -19 -20
-7 -7 -8 -8 -9 -9 -9 -10 -10 -10 -11 -11 -12 -13 -13 -13 -14 -14 -15 -16 -17 -17 -18 -18 -18 -19 -19 -19 -18 -18 -18 -19 -19 -19 -19 -19 -19 -19 -19 -19 -20 -20 -20 -20

GFSNGP_850_temp_045.txt.gz
Temp
13 14 14 15 15 13 15 15 15 16 14 17 17 16 15 14 14 14 13 13 14 14 14 14 14 14 14 13 13 12 12 12 11 9 9 8 7 7 6 5 4 3 2 1
13 12 14 14 14 13 13 13 14 14 14 15 14 13 12 12 13 12 12 12 12 13 13 13 14 14 13 13 12 11 10 9 9 8 8 7 6 5 4 3 2 1 -0 0
13 11 13 12 13 14 14 13 15 14 16 13 13 12 11 10 11 11 11 12 13 13 14 13 13 13 13 12 11 10 9 8 7 6 5 5 4 3 2 1 0 0 0 0
10 9 12 15 12 14 14 14 13 13 14 13 12 10 10 10 11 11 11 12 13 13 13 13 12 12 12 12 11 10 8 6 6 5 4 3 2 1 0 -0 0 0 0 -0
10 12 12 14 13 13 13 16 13 14 12 11 9 9 7 9 10 11 12 12 12 12 11 11 11 11 11 10 9 8 6 5 4 3 3 2 1 0 0 0 -0 -0 -1 -1
7 11 12 14 13 12 13 13 13 12 10 9 9 12 11 8 9 10 10 10 10 10 10 10 10 9 9 8 6 5 4 3 2 2 1 1 0 0 -0 -0 -1 -1 -1 -2
7 10 11 12 12 13 14 15 12 11 10 10 11 11 11 9 9 9 8 8 8 8 9 8 7 6 7 5 4 3 2 1 0 0 0 0 -0 -1 -1 -1 -1 -2 -2 -2
7 9 13 11 11 13 14 13 13 11 10 9 11 9 9 8 7 6 7 7 7 7 6 5 4 5 4 3 1 0 0 0 -0 -1 -1 -1 -1 -1 -1 -2 -2 -2 -2 -2
12 12 12 11 15 15 15 15 13 12 10 11 10 7 7 6 5 5 6 5 4 5 4 2 2 2 2 1 -0 -0 -0 -0 -1 -1 -1 -1 -2 -2 -2 -2 -3 -3 -3 -3
11 12 11 12 13 13 14 14 14 12 12 12 11 7 6 5 4 4 4 3 3 3 2 1 0 1 1 -0 -1 -1 -1 -1 -1 -1 -2 -2 -2 -3 -3 -3 -4 -4 -5 -5
10 9 8 10 12 13 13 13 12 12 12 12 11 7 6 4 4 3 2 2 1 1 1 -0 -1 -0 -1 -1 -1 -1 -1 -1 -2 -2 -2 -2 -2 -3 -3 -4 -5 -6 -7 -8
11 13 13 15 16 14 13 13 12 13 10 9 10 9 6 4 2 2 1 0 0 0 -0 -1 -1 -1 -1 -1 -2 -2 -2 -2 -2 -2 -3 -3 -3 -4 -4 -5 -6 -7 -7 -8
12 14 13 13 12 12 11 12 11 11 11 9 6 7 5 3 1 1 0 -0 -0 -1 -1 -2 -2 -2 -2 -2 -2 -2 -2 -3 -3 -4 -4 -4 -5 -6 -6 -6 -7 -7 -8 -9
11 11 9 10 10 8 9 8 8 8 8 7 6 3 3 1 -1 -1 -1 -1 -1 -2 -2 -2 -2 -2 -3 -3 -3 -3 -4 -4 -4 -5 -6 -6 -7 -7 -8 -8 -9 -9 -9 -10
8 10 9 11 8 7 7 7 6 5 4 3 3 2 2 0 -1 -1 -1 -2 -2 -2 -2 -3 -3 -3 -3 -3 -4 -4 -5 -5 -6 -6 -7 -8 -8 -9 -9 -10 -10 -10 -10 -11
7 6 6 7 7 5 4 3 5 1 1 0 -0 -1 -1 -1 -2 -2 -3 -3 -2 -2 -3 -3 -4 -4 -4 -4 -5 -5 -6 -6 -7 -8 -8 -9 -9 -10 -10 -11 -11 -12 -12 -12
4 1 2 3 1 0 2 2 3 1 -0 -0 -1 -2 -3 -4 -4 -3 -3 -3 -3 -3 -4 -4 -4 -4 -5 -5 -6 -6 -7 -8 -9 -9 -10 -10 -11 -11 -12 -12 -13 -13 -13 -13
5 5 3 4 2 0 1 1 1 0 -1 -1 -2 -3 -3 -4 -3 -3 -3 -3 -4 -4 -5 -5 -5 -5 -6 -6 -7 -8 -8 -9 -10 -10 -11 -11 -12 -12 -13 -13 -14 -14 -14 -14
4 6 4 2 2 1 1 -0 -1 -1 -2 -2 -3 -3 -3 -3 -3 -3 -4 -4 -5 -5 -5 -6 -6 -7 -7 -7 -8 -9 -10 -10 -11 -11 -12 -12 -13 -13 -14 -14 -15 -15 -15 -15
2 2 1 -1 -1 0 -1 -2 -2 -2 -3 -3 -4 -3 -3 -4 -4 -4 -5 -5 -6 -6 -7 -7 -8 -8 -8 -9 -9 -10 -11 -11 -12 -12 -13 -14 -14 -14 -15 -15 -16 -16 -16 -16
-1 -1 -1 -1 -1 -2 -2 -2 -3 -3 -4 -4 -3 -4 -5 -5 -6 -6 -7 -7 -7 -8 -8 -9 -9 -9 -10 -10 -11 -11 -12 -13 -13 -14 -14 -15 -15 -16 -16 -16 -17 -17 -17 -17
-1 -1 -2 -2 -3 -3 -3 -3 -4 -4 -4 -5 -5 -5 -5 -6 -7 -8 -8 -9 -9 -9 -10 -10 -11 -11 -11 -12 -12 -13 -14 -14 -14 -15 -16 -16 -16 -17 -17 -17 -17 -17 -17 -18
-3 -3 -3 -3 -3 -4 -4 -4 -4 -4 -5 -6 -6 -6 -7 -8 -9 -9 -9 -10 -11 -11 -11 -12 -12 -12 -12 -13 -14 -14 -15 -15 -16 -16 -17 -17 -18 -18 -18 -18 -18 -18 -18 -18
-3 -3 -4 -4 -5 -5 -5 -6 -7 -8 -7 -7 -8 -9 -9 -9 -10 -10 -11 -11 -12 -13 -13 -13 -13 -14 -14 -15 -15 -16 -16 -17 -17 -17 -18 -18 -19 -19 -19 -19 -18 -18 -18 -19
-4 -5 -5 -6 -6 -7 -7 -8 -9 -9 -8 -9 -9 -10 -10 -10 -11 -11 -12 -12 -13 -14 -14 -14 -15 -15 -15 -16 -17 -17 -18 -18 -18 -19 -19 -19 -19 -19 -19 -19 -19 -19 -19 -19
-6 -7 -7 -7 -8 -8 -9 -9 -9 -9 -10 -10 -10 -11 -11 -11 -12 -13 -14 -14 -14 -15 -15 -15 -16 -16 -17 -18 -18 -19 -19 -19 -20 -20 -20 -20 -19 -19 -19 -19 -19 -19 -19 -19
-8 -8 -8 -9 -9 -10 -10 -10 -10 -10 -11 -11 -11 -12 -12 -13 -14 -14 -15 -15 -16 -16 -17 -17 -18 -18 -19 -19 -20 -20 -20 -20 -20 -20 -20 -20 -20 -20 -20 -20 -19 -19 -20 -20

GFSNGP_850_temp_048.txt.gz
Temp
20 20 21 20 20 20 19 19 19 20 20 21 22 22 22 19 16 16 16 16 15 15 15 14 13 12 12 11 13 13 12 11 10 9 9 8 8 8 8 7 6 6 4 2
18 19 19 19 20 20 20 20 20 20 20 22 21 20 19 18 16 16 14 13 13 13 12 12 12 11 12 12 12 11 10 10 9 8 8 8 7 7 6 5 4 3 2 1
17 17 17 14 17 19 20 19 19 19 21 22 21 20 19 17 16 14 12 11 11 10 11 13 13 13 13 12 11 11 10 9 8 7 7 6 5 4 4 3 3 2 1 1
16 11 13 19 19 20 20 20 21 20 21 21 20 19 15 15 14 12 11 10 9 11 12 12 12 12 12 11 10 9 8 7 7 6 5 4 3 3 2 2 1 1 0 0
13 15 18 17 16 17 18 20 21 21 21 20 16 13 11 12 12 10 9 8 8 10 11 11 11 11 11 10 9 8 7 5 5 4 4 2 2 1 1 1 0 -1 -1 -2
12 15 14 19 20 18 19 18 21 20 19 19 14 15 18 9 8 7 7 7 8 8 9 9 8 8 8 7 6 5 4 3 1 1 0 -0 1 1 0 -0 -2 -2 -2 -2
14 14 17 19 18 17 17 19 19 19 18 16 15 17 13 8 7 6 7 7 7 6 6 7 6 6 6 5 4 2 1 1 1 1 1 0 -0 -1 -2 -2 -2 -1 -1 -1
14 13 14 16 15 18 20 16 18 16 16 15 14 10 8 7 6 5 5 6 5 5 4 3 3 4 3 3 1 1 2 1 1 0 -0 -1 -1 -1 -1 -2 -2 -3 -3 -3
16 17 18 15 19 17 17 19 15 16 15 14 9 8 7 6 5 4 4 3 3 3 2 2 2 2 1 0 1 1 1 -0 -0 -0 -1 -1 -2 -2 -3 -3 -4 -4 -5 -5
14 18 17 16 16 15 14 16 15 15 14 11 9 7 6 5 4 4 3 3 2 1 1 0 0 0 2 1 0 -0 -1 -1 -1 -1 -2 -1 -2 -3 -4 -4 -4 -5 -6 -7
15 17 13 13 14 16 13 12 13 13 12 10 9 7 6 4 3 3 3 1 1 0 -1 -1 0 1 0 -1 -2 -2 -1 -1 -1 -2 -2 -4 -4 -3 -3 -4 -4 -5 -6 -7
15 18 16 19 17 14 13 11 12 11 10 9 8 7 5 4 3 2 1 0 -0 -1 -1 -0 -0 -0 -1 -2 -2 -1 -1 -2 -2 -2 -3 -3 -5 -7 -5 -5 -6 -6 -7 -8
16 14 13 12 13 12 12 11 10 9 9 7 7 5 4 3 2 1 -0 -1 -2 -2 -1 -1 -1 -1 -2 -2 -2 -2 -2 -2 -2 -3 -4 -5 -6 -7 -8 -9 -8 -8 -8 -9
12 12 12 12 10 10 9 11 9 7 6 6 4 3 2 1 -1 -1 -2 -3 -3 -1 -1 -2 -2 -2 -2 -2 -2 -2 -3 -3 -4 -5 -5 -6 -7 -8 -9 -10 -11 -11 -11 -10
9 9 8 9 8 8 6 10 6 3 3 2 2 0 -1 -2 -2 -3 -4 -4 -4 -4 -5 -4 -3 -3 -3 -3 -3 -4 -4 -5 -5 -6 -6 -7 -8 -9 -10 -11 -12 -12 -13 -13
6 6 6 6 5 8 6 4 2 1 0 -1 -1 -2 -2 -3 -4 -6 -6 -5 -5 -6 -7 -4 -4 -4 -4 -4 -5 -5 -5 -6 -7 -7 -8 -8 -9 -10 -11 -12 -13 -13 -14 -15
4 4 3 3 2 3 3 1 2 -1 -1 -2 -3 -4 -4 -5 -5 -5 -4 -5 -5 -4 -5 -5 -4 -4 -5 -5 -6 -6 -7 -7 -8 -8 -9 -9 -10 -11 -11 -13 -13 -14 -16 -16
4 6 6 5 3 2 -0 -0 -1 -1 -0 -2 -3 -4 -4 -4 -4 -5 -5 -6 -5 -5 -5 -5 -6 -6 -6 -6 -7 -7 -8 -8 -9 -9 -10 -11 -11 -12 -12 -13 -14 -15 -16 -16
2 4 4 2 1 0 -1 -2 -2 -2 -3 -3 -3 -3 -4 -4 -4 -5 -6 -6 -6 -5 -6 -7 -7 -7 -7 -8 -8 -8 -9 -10 -10 -11 -11 -12 -12 -12 -13 -14 -15 -15 -15 -16
-0 -0 -0 -1 -2 -1 -2 -2 -2 -3 -3 -3 -3 -4 -5 -5 -6 -7 -8 -8 -7 -7 -8 -8 -8 -8 -8 -8 -9 -10 -10 -11 -11 -12 -12 -13 -13 -14 -14 -15 -15 -15 -16 -17
-2 -3 -3 -2 -3 -3 -2 -3 -3 -3 -4 -4 -4 -6 -6 -6 -7 -8 -8 -7 -8 -8 -9 -9 -9 -9 -10 -10 -11 -11 -12 -12 -13 -13 -14 -14 -14 -15 -16 -16 -16 -16 -17 -18
-3 -3 -3 -3 -3 -4 -3 -3 -3 -4 -5 -5 -6 -6 -6 -7 -8 -8 -8 -9 -9 -9 -10 -10 -10 -11 -11 -12 -13 -13 -13 -14 -14 -15 -15 -15 -16 -16 -17 -17 -17 -17 -18 -18
-4 -4 -4 -4 -4 -4 -4 -4 -5 -6 -6 -6 -7 -7 -8 -8 -9 -9 -9 -10 -10 -10 -11 -11 -12 -12 -13 -13 -14 -15 -15 -15 -15 -16 -16 -17 -17 -18 -18 -18 -18 -18 -18 -19
-5 -5 -5 -5 -5 -5 -6 -7 -7 -7 -7 -8 -9 -9 -8 -9 -9 -9 -10 -10 -11 -12 -13 -13 -13 -14 -15 -15 -16 -16 -16 -17 -17 -17 -18 -18 -19 -19 -19 -19 -19 -19 -19 -19
-6 -7 -7 -7 -7 -8 -8 -8 -9 -10 -10 -10 -10 -10 -10 -10 -10 -11 -12 -12 -13 -14 -14 -15 -15 -16 -16 -16 -17 -17 -17 -18 -19 -19 -20 -21 -20 -20 -20 -20 -20 -20 -20 -19
-7 -8 -8 -9 -9 -9 -9 -9 -9 -10 -10 -11 -11 -11 -11 -12 -12 -13 -13 -14 -15 -15 -16 -16 -16 -17 -17 -18 -18 -18 -18 -20 -21 -22 -21 -20 -21 -20 -20 -20 -20 -20 -20 -20
-9 -9 -10 -10 -10 -10 -10 -11 -11 -11 -11 -12 -12 -12 -13 -13 -14 -14 -15 -15 -16 -17 -17 -17 -18 -18 -19 -19 -19 -20 -21 -22 -22 -20 -21 -21 -21 -21 -21 -20 -20 -20 -20 -20

GFSNGP_850_temp_051.txt.gz
Temp
21 22 22 22 22 21 21 21 20 21 21 23 23 24 24 24 23 22 21 21 20 19 18 17 15 15 14 12 11 11 11 10 10 10 9 8 8 8 7 7 7 6 6 5
19 21 21 21 22 22 22 22 22 22 22 24 24 23 23 22 21 21 20 20 20 19 18 16 15 14 11 10 10 9 8 8 9 8 6 7 7 7 5 6 5 5 4 3
17 20 20 18 20 21 22 22 22 21 22 24 24 23 23 22 21 20 19 17 17 16 15 14 13 11 10 9 9 8 8 7 8 8 8 7 6 5 3 3 2 2 2 1
16 13 15 19 22 22 21 22 23 23 23 23 23 23 22 21 20 18 16 15 14 13 12 11 11 10 9 9 8 7 6 7 7 7 6 4 3 3 3 2 1 1 1 1
15 16 18 20 20 21 21 21 23 23 23 23 23 20 19 18 18 16 14 13 12 11 11 10 10 9 9 8 7 6 5 5 4 4 3 2 1 1 1 2 1 1 -0 -1
15 15 15 19 21 22 22 19 23 23 23 22 21 18 20 16 15 14 12 11 10 10 9 9 8 8 8 7 6 5 5 4 3 3 2 1 1 1 1 -0 -0 -0 -1 -1
14 15 18 21 22 22 18 19 23 22 22 21 21 20 18 15 12 11 10 10 9 9 9 8 7 7 7 6 5 4 3 3 2 2 2 1 1 -0 -0 -0 -1 -2 -1 -2
14 14 14 20 20 19 21 21 21 21 21 20 19 15 13 12 11 10 9 8 8 8 7 7 7 6 6 5 3 2 2 2 2 1 0 -0 -0 -1 -1 -1 -2 -2 -3 -3
16 17 19 18 20 20 21 21 20 20 20 19 16 14 12 11 10 9 8 8 8 7 6 6 6 5 4 3 2 1 1 0 -0 -1 -1 -1 -1 -1 -1 -2 -3 -3 -4 -4
16 18 19 19 18 19 19 20 19 19 19 17 15 13 12 10 9 9 8 8 7 6 5 5 4 4 2 2 1 1 0 -0 -1 -1 -1 -2 -2 -2 -3 -4 -3 -4 -5 -6
16 18 19 19 17 17 18 18 17 16 17 16 14 12 11 10 9 9 8 7 6 5 4 3 2 1 1 1 0 -0 -1 -1 -2 -2 -2 -3 -4 -3 -3 -2 -3 -4 -5 -5
15 18 17 18 18 18 18 17 15 15 15 14 13 12 10 9 8 8 7 5 4 3 2 1 -0 -0 -0 -1 -1 -1 -2 -3 -3 -3 -3 -4 -4 -4 -4 -5 -5 -5 -5 -6
17 17 15 14 14 17 16 16 15 14 15 13 12 11 9 8 7 7 5 4 3 1 -0 -1 -2 -2 -2 -3 -3 -3 -4 -2 -2 -3 -5 -4 -5 -6 -6 -7 -6 -7 -7 -7
15 12 12 13 13 13 13 14 12 12 12 12 11 9 8 7 5 4 3 2 0 -1 -2 -3 -4 -5 -5 -3 -2 -2 -3 -3 -5 -6 -6 -5 -6 -6 -7 -8 -9 -10 -11 -11
12 10 9 9 10 9 9 8 9 10 10 9 8 7 6 4 3 2 1 -1 -3 -3 -5 -5 -6 -5 -4 -3 -3 -5 -6 -6 -5 -5 -5 -5 -6 -7 -9 -10 -10 -11 -11 -12
9 7 7 7 8 7 6 6 7 7 6 6 6 5 3 2 0 -2 -3 -4 -5 -6 -6 -4 -3 -3 -4 -4 -4 -4 -5 -5 -6 -6 -7 -8 -9 -9 -11 -11 -12 -12 -12 -13
7 8 8 7 7 6 5 5 5 4 3 3 1 1 -1 -3 -4 -5 -6 -6 -6 -5 -6 -6 -4 -4 -5 -5 -5 -7 -8 -6 -7 -8 -9 -9 -10 -11 -12 -13 -13 -13 -14 -14
5 5 6 6 6 5 3 2 1 0 -0 -1 -2 -3 -5 -6 -6 -6 -6 -6 -6 -6 -6 -6 -6 -7 -6 -6 -6 -7 -7 -8 -9 -9 -10 -10 -10 -12 -13 -14 -14 -15 -15 -15
1 2 2 3 2 1 -0 -1 -2 -2 -2 -3 -3 -5 -5 -6 -6 -7 -7 -7 -8 -8 -8 -8 -8 -6 -6 -7 -7 -8 -9 -9 -10 -11 -11 -11 -13 -14 -15 -15 -16 -16 -16 -16
-0 -0 -0 -0 -1 -1 -2 -3 -4 -4 -5 -4 -5 -5 -6 -6 -6 -6 -7 -8 -8 -8 -9 -8 -7 -7 -8 -8 -9 -9 -10 -10 -11 -12 -13 -13 -15 -16 -16 -16 -17 -17 -17 -17
-4 -3 -3 -3 -4 -5 -5 -5 -5 -5 -5 -5 -5 -5 -6 -7 -7 -7 -8 -8 -10 -10 -9 -9 -9 -9 -9 -10 -10 -10 -11 -12 -12 -15 -16 -17 -17 -17 -17 -18 -18 -18 -18 -19
-5 -5 -6 -5 -6 -6 -6 -5 -5 -5 -5 -5 -6 -6 -7 -8 -9 -9 -10 -9 -10 -11 -10 -10 -10 -11 -11 -11 -12 -12 -13 -13 -15 -17 -17 -17 -18 -18 -18 -19 -19 -19 -20 -20
-6 -6 -5 -5 -6 -6 -5 -5 -6 -6 -6 -7 -8 -8 -9 -10 -10 -10 -10 -11 -10 -11 -12 -11 -12 -12 -12 -13 -13 -14 -16 -17 -18 -18 -18 -19 -19 -19 -20 -20 -20 -21 -21 -21
-7 -7 -7 -7 -6 -6 -7 -8 -7 -8 -8 -9 -9 -10 -10 -10 -10 -11 -11 -11 -11 -12 -13 -13 -13 -13 -14 -15 -17 -18 -18 -18 -19 -19 -19 -19 -20 -20 -20 -21 -21 -21 -22 -22
-8 -8 -8 -8 -8 -9 -9 -9 -9 -10 -10 -10 -10 -11 -11 -11 -11 -12 -12 -12 -13 -14 -15 -14 -15 -15 -16 -18 -18 -19 -19 -19 -19 -20 -21 -21 -21 -21 -21 -22 -22 -22 -22 -20
-10 -10 -10 -10 -10 -10 -10 -10 -11 -11 -11 -12 -12 -12 -12 -12 -12 -13 -13 -14 -14 -15 -16 -17 -18 -18 -19 -19 -19 -20 -20 -20 -21 -21 -21 -22 -22 -22 -22 -23 -23 -24 -23 -21
-11 -11 -11 -12 -12 -11 -12 -12 -12 -12 -12 -12 -13 -14 -14 -14 -14 -15 -15 -16 -17 -18 -18 -18 -19 -19 -20 -21 -21 -21 -21 -21 -21 -22 -23 -23 -23 -23 -23 -24 -24 -22 -21 -20

GFSNGP_850_temp_057.txt.gz
Temp
17 18 19 19 18 19 18 18 16 16 17 18 18 18 19 21 22 22 22 20 20 20 20 19 18 17 17 17 17 16 16 16 14 13 13 12 11 11 9 9 9 8 8 8
16 17 18 18 18 18 19 19 19 18 18 19 20 21 21 22 22 22 22 22 20 20 19 18 17 17 16 16 16 16 16 15 14 12 11 11 10 9 8 8 7 7 7 6
14 16 17 14 16 18 18 19 19 17 17 19 19 19 19 22 22 21 21 22 21 20 18 17 17 18 16 15 15 14 13 12 11 10 10 9 9 8 7 6 6 5 5 5
9 11 13 16 17 18 18 19 19 19 20 19 20 22 22 22 22 21 22 21 21 20 18 17 16 16 15 15 14 12 11 10 9 9 9 8 7 7 6 5 5 5 3 1
11 12 14 17 18 18 18 17 19 19 19 19 22 21 20 21 21 21 21 20 20 19 18 16 16 15 14 12 11 11 10 9 8 8 8 7 5 4 4 4 1 1 0 -0
7 11 12 14 16 18 18 14 19 19 18 19 19 15 15 20 20 20 20 19 18 17 16 14 12 12 12 11 10 9 9 8 8 7 6 5 4 2 1 1 1 0 -0 -1
7 8 10 15 17 19 15 14 19 20 20 20 16 16 20 19 19 19 18 17 16 14 14 12 11 11 11 10 9 8 8 7 6 6 5 4 3 2 1 1 0 -0 -1 -1
7 8 9 14 16 16 14 19 19 20 21 21 20 20 19 19 18 17 16 15 14 13 12 11 10 10 9 8 7 6 6 5 5 4 3 3 2 1 1 0 0 -0 -1 -1
9 8 12 13 13 13 13 11 17 19 19 17 18 18 18 18 17 16 15 13 12 11 10 9 9 9 8 7 6 5 5 4 4 3 2 2 1 0 -0 -0 -0 -1 -2 -2
11 12 12 15 15 16 13 12 14 15 18 18 17 16 17 17 15 14 13 12 11 10 9 9 8 8 7 6 5 5 4 3 2 2 0 -0 -0 -0 -0 -1 -1 -2 -2 -3
11 12 12 14 16 16 15 15 14 16 15 17 17 16 16 15 14 13 12 11 10 9 9 8 7 6 6 5 4 4 3 2 1 0 0 -0 -1 -1 -1 -1 -2 -2 -2 -3
8 11 12 14 15 15 15 14 14 14 15 16 16 16 16 14 13 12 11 10 9 8 8 7 6 5 4 3 3 2 1 0 -0 -0 -1 -1 -1 -1 -2 -2 -2 -3 -3 -3
13 15 15 15 14 14 14 14 14 14 15 15 16 16 15 14 12 11 10 9 8 7 6 5 4 3 2 1 1 1 -0 -1 -1 -2 -2 -2 -3 -3 -3 -4 -5 -4 -5 -5
11 13 12 13 11 11 11 12 13 13 14 14 15 15 14 12 11 10 9 8 6 5 4 3 2 1 1 1 0 -1 -1 -2 -2 -3 -4 -4 -5 -5 -5 -4 -5 -6 -6 -7
7 8 9 9 10 9 9 10 10 10 11 13 13 13 12 10 9 8 7 6 5 3 1 1 -0 -2 -2 -2 -1 -2 -3 -3 -4 -4 -4 -5 -5 -6 -5 -5 -6 -7 -8 -9
6 6 7 8 8 8 8 8 8 8 9 10 10 10 9 8 7 5 3 2 3 -0 -3 -3 -3 -5 -5 -5 -5 -5 -5 -5 -6 -6 -6 -7 -7 -7 -7 -6 -8 -9 -10 -11
3 3 5 6 6 6 6 6 6 6 6 7 6 5 5 4 2 1 -1 -2 -2 -4 -5 -5 -5 -6 -7 -7 -7 -6 -5 -6 -6 -7 -8 -8 -8 -7 -7 -8 -9 -10 -11 -12
1 1 2 4 4 4 4 3 3 3 4 3 2 2 1 1 -2 -4 -5 -5 -5 -6 -6 -6 -7 -7 -7 -7 -7 -7 -7 -8 -9 -9 -10 -9 -9 -9 -9 -10 -11 -12 -12 -13
-1 -1 -0 1 1 1 0 0 0 -0 -1 -1 -1 -1 -2 -4 -5 -6 -6 -5 -6 -6 -8 -8 -8 -8 -8 -8 -8 -8 -9 -10 -10 -10 -11 -10 -10 -11 -11 -12 -13 -14 -14 -15
-5 -4 -3 -3 -3 -3 -4 -4 -4 -4 -4 -3 -4 -5 -6 -6 -6 -6 -6 -7 -8 -8 -9 -9 -9 -8 -9 -9 -10 -10 -11 -12 -12 -12 -12 -12 -12 -13 -14 -15 -15 -15 -16 -16
-6 -6 -6 -6 -6 -6 -6 -6 -5 -6 -6 -5 -5 -6 -7 -8 -8 -7 -7 -8 -10 -10 -9 -9 -10 -10 -10 -11 -11 -12 -12 -13 -13 -13 -14 -14 -15 -16 -16 -16 -17 -17 -17 -18
-7 -7 -7 -7 -7 -8 -7 -7 -7 -7 -7 -8 -8 -8 -8 -8 -8 -8 -9 -9 -10 -10 -11 -11 -11 -12 -12 -13 -13 -14 -14 -15 -15 -15 -16 -17 -17 -17 -17 -18 -18 -18 -19 -19
-8 -8 -8 -8 -8 -8 -8 -8 -8 -8 -8 -8 -8 -8 -9 -9 -10 -9 -11 -12 -12 -12 -12 -13 -13 -13 -14 -14 -15 -15 -16 -16 -17 -17 -18 -18 -18 -18 -19 -19 -19 -20 -20 -21
-8 -8 -9 -9 -8 -8 -9 -10 -9 -10 -10 -10 -10 -10 -10 -10 -11 -12 -12 -13 -13 -13 -14 -14 -15 -15 -15 -16 -16 -17 -18 -18 -18 -19 -19 -19 -19 -19 -20 -20 -21 -21 -21 -22
-9 -9 -9 -10 -10 -10 -10 -11 -11 -11 -11 -11 -11 -12 -12 -12 -12 -13 -13 -14 -14 -15 -15 -16 -16 -17 -17 -18 -18 -19 -19 -19 -20 -20 -20 -21 -21 -21 -21 -22 -22 -22 -22 -23
-10 -11 -11 -10 -10 -11 -11 -11 -12 -12 -12 -13 -13 -13 -14 -14 -14 -15 -15 -16 -16 -17 -17 -18 -18 -19 -19 -19 -20 -20 -21 -21 -21 -21 -21 -22 -22 -22 -23 -23 -23 -23 -23 -24
-12 -12 -12 -12 -12 -12 -12 -12 -13 -13 -14 -14 -14 -15 -15 -16 -16 -16 -17 -17 -17 -18 -18 -19 -19 -20 -20 -20 -21 -21 -21 -22 -22 -22 -23 -23 -23 -24 -24 -24 -24 -24 -24 -23

GFSNGP_850_temp_060.txt.gz
Temp
15 16 17 17 17 17 17 16 14 15 16 17 16 17 18 21 20 21 20 21 21 21 20 20 20 19 18 16 15 15 13 13 13 13 13 12 13 14 13 10 10 10 9 8
13 16 17 17 17 18 18 16 16 16 15 17 18 20 18 19 21 21 21 21 21 21 20 20 20 20 18 16 16 15 14 14 14 14 14 12 11 10 10 10 10 9 9 8
9 14 15 13 16 17 16 16 16 15 16 17 18 18 18 19 20 21 22 21 21 20 20 20 20 20 19 17 17 16 15 16 16 14 12 10 10 9 9 9 9 8 7 7
7 9 11 15 16 16 16 17 17 17 17 17 18 21 21 20 21 22 22 22 21 20 20 20 19 19 19 17 16 15 14 13 11 11 10 10 10 9 8 8 7 6 6 5
8 9 13 14 14 15 15 16 17 17 17 17 20 19 19 21 21 22 23 22 21 21 20 19 18 17 16 16 15 14 14 13 10 10 10 9 8 8 7 6 5 5 4 3
6 7 9 13 15 17 17 13 16 17 17 17 18 13 13 21 22 22 21 21 21 20 20 18 17 16 15 15 14 12 12 11 10 9 9 8 8 7 6 5 4 3 2 1
7 8 8 12 12 17 14 14 17 18 18 18 15 15 21 20 20 21 21 21 20 20 19 17 16 15 14 13 11 10 9 9 8 8 7 7 6 5 5 3 2 1 0 -0
6 7 7 11 12 13 11 12 13 13 14 17 19 20 20 20 20 19 19 18 18 17 16 15 15 13 12 11 10 9 8 8 7 6 6 5 5 3 2 1 1 0 -0 -1
8 8 11 11 12 12 12 13 13 13 13 15 16 17 18 18 18 18 19 18 17 16 14 13 12 12 11 10 9 8 7 6 5 4 4 3 2 1 0 0 0 -0 -1 -1
9 11 11 14 13 14 14 15 15 15 13 15 14 16 16 17 17 17 16 15 14 13 12 11 10 10 10 9 8 7 6 5 4 3 2 1 0 0 0 -0 -1 -1 -1 -2
10 11 12 14 14 15 15 15 15 15 15 14 14 14 16 16 15 15 14 13 12 12 11 10 9 8 8 8 7 6 5 4 2 2 1 0 -0 -1 -1 -1 -1 -1 -2 -3
9 11 11 13 15 16 15 15 14 14 14 13 15 15 15 14 14 13 14 12 11 10 9 8 7 7 6 6 5 5 4 2 2 1 0 -0 -1 -1 -2 -2 -3 -4 -4 -5
6 7 12 12 12 13 12 12 14 14 14 14 15 15 15 14 12 12 11 10 10 9 8 7 6 6 4 4 4 3 3 1 -0 -0 -1 -1 -2 -2 -2 -3 -3 -4 -4 -4
5 9 9 9 9 10 10 10 11 11 12 13 14 14 15 11 11 10 9 9 8 7 6 5 5 3 2 2 2 2 1 -0 -1 -1 -2 -3 -3 -3 -4 -4 -4 -5 -7 -7
4 6 6 7 8 8 8 9 10 10 10 11 12 11 11 11 9 7 6 6 6 5 3 2 2 1 -0 0 0 -1 -3 -4 -5 -5 -5 -6 -5 -5 -5 -6 -7 -8 -8 -9
3 4 5 5 5 6 7 7 7 6 7 6 7 6 6 6 5 3 2 1 2 -0 -1 -1 -1 -4 -4 -3 -3 -4 -4 -4 -5 -6 -7 -7 -6 -7 -7 -8 -9 -10 -10 -11
1 1 2 2 2 2 2 3 4 4 3 3 2 1 1 1 -1 -3 -4 -3 -3 -5 -5 -4 -5 -5 -4 -4 -5 -5 -6 -7 -7 -6 -7 -7 -8 -9 -9 -10 -11 -11 -12 -12
-2 -1 -1 0 0 -0 0 1 1 1 1 -1 -1 -1 -2 -2 -4 -5 -6 -6 -6 -6 -6 -6 -7 -7 -7 -7 -7 -7 -7 -7 -8 -8 -9 -9 -10 -11 -11 -12 -12 -13 -13 -14
-3 -3 -3 -2 -3 -2 -3 -3 -3 -3 -3 -3 -3 -4 -5 -6 -6 -6 -6 -6 -6 -6 -9 -8 -8 -8 -7 -8 -8 -8 -8 -9 -9 -10 -10 -11 -11 -12 -13 -14 -14 -14 -14 -15
-6 -5 -5 -5 -5 -5 -6 -6 -5 -5 -6 -5 -6 -6 -7 -7 -7 -7 -7 -8 -9 -10 -9 -9 -9 -9 -9 -9 -9 -9 -10 -11 -11 -12 -13 -13 -14 -14 -15 -15 -15 -16 -16 -16
-7 -7 -7 -7 -7 -7 -7 -7 -6 -7 -7 -6 -6 -7 -8 -8 -8 -8 -8 -9 -11 -10 -10 -10 -10 -10 -10 -10 -11 -11 -12 -13 -13 -14 -14 -15 -16 -16 -16 -17 -17 -17 -18 -18
-8 -8 -8 -8 -8 -9 -8 -8 -8 -8 -8 -8 -8 -9 -9 -9 -9 -10 -11 -11 -12 -11 -11 -11 -12 -12 -12 -13 -13 -14 -14 -15 -15 -15 -16 -16 -17 -17 -18 -18 -19 -19 -19 -20
-9 -9 -9 -9 -9 -9 -9 -9 -9 -9 -9 -9 -9 -10 -10 -11 -11 -11 -12 -13 -13 -13 -13 -13 -13 -14 -14 -14 -15 -15 -16 -16 -17 -17 -18 -18 -19 -19 -19 -20 -20 -20 -21 -21
-9 -10 -10 -10 -10 -9 -10 -10 -10 -10 -10 -11 -11 -11 -11 -11 -12 -13 -13 -14 -14 -14 -14 -15 -16 -16 -16 -16 -17 -17 -18 -18 -19 -19 -20 -20 -20 -21 -21 -21 -21 -22 -22 -23
-9 -10 -10 -10 -10 -11 -11 -11 -11 -11 -11 -12 -12 -12 -13 -13 -12 -14 -14 -15 -15 -15 -16 -17 -17 -17 -17 -18 -18 -19 -19 -20 -20 -21 -21 -21 -22 -22 -22 -23 -23 -23 -23 -24
-10 -11 -11 -11 -11 -12 -12 -12 -12 -13 -13 -13 -14 -14 -14 -15 -15 -15 -16 -16 -16 -17 -17 -18 -18 -19 -19 -20 -20 -20 -21 -21 -21 -22 -22 -22 -22 -22 -23 -23 -23 -23 -23 -23
-12 -12 -12 -12 -13 -13 -13 -13 -13 -14 -14 -14 -15 -16 -16 -16 -16 -17 -17 -18 -18 -19 -19 -19 -20 -20 -21 -21 -21 -21 -21 -21 -22 -22 -22 -22 -22 -22 -23 -23 -23 -23 -23 -23